Observation data for Odell on 11/13/2019      Previous  Date       Current Mesonet Observations  Soil Data  Daily Summary Page  Observations in Plain Language
KOD1 130600Z 17011KT M03/M10 A3027 RMK A01 T10261099  RH  057%=      5-min Rain = 0
KOD1 130601Z 17012KT M03/M10 A3027 RMK A01 T10271099  RH  058%=      5-min Rain = 0
KOD1 130602Z 17011KT M03/M10 A3027 RMK A01 T10271099  RH  058%=      5-min Rain = 0
KOD1 130603Z 17013KT M03/M10 A3027 RMK A01 T10271099  RH  058%=      5-min Rain = 0
KOD1 130604Z 17012KT M03/M10 A3026 RMK A01 T10271099  RH  058%=      5-min Rain = 0
KOD1 130605Z 17012KT M03/M10 A3026 RMK A01 T10271099  RH  058%=      5-min Rain = 0
KOD1 130606Z 17012KT M03/M10 A3026 RMK A01 T10271099  RH  058%=      5-min Rain = 0
KOD1 130607Z 17012KT M03/M10 A3026 RMK A01 T10271098  RH  058%=      5-min Rain = 0
KOD1 130608Z 17012KT M03/M10 A3026 RMK A01 T10271098  RH  058%=      5-min Rain = 0
KOD1 130609Z 17011KT M03/M10 A3026 RMK A01 T10281098  RH  059%=      5-min Rain = 0
KOD1 130610Z 17012KT M03/M10 A3026 RMK A01 T10281098  RH  059%=      5-min Rain = 0
KOD1 130611Z 17012KT M03/M10 A3026 RMK A01 T10281098  RH  059%=      5-min Rain = 0
KOD1 130612Z 17012KT M03/M10 A3026 RMK A01 T10291098  RH  059%=      5-min Rain = 0
KOD1 130613Z 17013KT M03/M10 A3026 RMK A01 T10281098  RH  059%=      5-min Rain = 0
KOD1 130614Z 17012KT M03/M10 A3026 RMK A01 T10281097  RH  059%=      5-min Rain = 0
KOD1 130615Z 17012KT M03/M10 A3026 RMK A01 T10291097  RH  059%=      5-min Rain = 0
KOD1 130616Z 17011KT M03/M10 A3026 RMK A01 T10291097  RH  060%=      5-min Rain = 0
KOD1 130617Z 17012KT M03/M10 A3026 RMK A01 T10291097  RH  060%=      5-min Rain = 0
KOD1 130618Z 17012KT M03/M10 A3026 RMK A01 T10281097  RH  059%=      5-min Rain = 0
KOD1 130619Z 17013KT M03/M10 A3026 RMK A01 T10281097  RH  059%=      5-min Rain = 0
KOD1 130620Z 17012KT M03/M10 A3026 RMK A01 T10281097  RH  059%=      5-min Rain = 0
KOD1 130621Z 17013KT M03/M10 A3026 RMK A01 T10291097  RH  059%=      5-min Rain = 0
KOD1 130622Z 17012KT M03/M10 A3026 RMK A01 T10291097  RH  059%=      5-min Rain = 0
KOD1 130623Z 17011KT M03/M10 A3026 RMK A01 T10291097  RH  060%=      5-min Rain = 0
KOD1 130624Z 17011KT M03/M10 A3026 RMK A01 T10301097  RH  060%=      5-min Rain = 0
KOD1 130625Z 17011KT M03/M10 A3026 RMK A01 T10301096  RH  060%=      5-min Rain = 0
KOD1 130626Z 17011KT M03/M10 A3026 RMK A01 T10311096  RH  061%=      5-min Rain = 0
KOD1 130627Z 17012KT M03/M10 A3025 RMK A01 T10311095  RH  061%=      5-min Rain = 0
KOD1 130628Z 17011KT M03/M10 A3025 RMK A01 T10301096  RH  060%=      5-min Rain = 0
KOD1 130629Z 17010KT M03/M10 A3025 RMK A01 T10301096  RH  061%=      5-min Rain = 0
KOD1 130630Z 17011KT M03/M10 A3025 RMK A01 T10311095  RH  061%=      5-min Rain = 0
KOD1 130631Z 17011KT M03/M10 A3025 RMK A01 T10301095  RH  061%=      5-min Rain = 0
KOD1 130632Z 17012KT M03/M10 A3025 RMK A01 T10301096  RH  060%=      5-min Rain = 0
KOD1 130633Z 17011KT M03/M10 A3025 RMK A01 T10291096  RH  060%=      5-min Rain = 0
KOD1 130634Z 17011KT M03/M10 A3025 RMK A01 T10301095  RH  061%=      5-min Rain = 0
KOD1 130635Z 17011KT M03/M10 A3025 RMK A01 T10301095  RH  061%=      5-min Rain = 0
KOD1 130636Z 17011KT M03/M10 A3025 RMK A01 T10301095  RH  061%=      5-min Rain = 0
KOD1 130637Z 17012KT M03/M10 A3025 RMK A01 T10301095  RH  061%=      5-min Rain = 0
KOD1 130638Z 17011KT M03/M10 A3024 RMK A01 T10311095  RH  061%=      5-min Rain = 0
KOD1 130639Z 16011KT M03/M10 A3024 RMK A01 T10311095  RH  061%=      5-min Rain = 0
KOD1 130640Z 17011KT M03/M10 A3024 RMK A01 T10311095  RH  061%=      5-min Rain = 0
KOD1 130641Z 17011KT M03/M09 A3024 RMK A01 T10311094  RH  062%=      5-min Rain = 0
KOD1 130642Z 17012KT M03/M10 A3024 RMK A01 T10311095  RH  061%=      5-min Rain = 0
KOD1 130643Z 17012KT M03/M10 A3024 RMK A01 T10301095  RH  061%=      5-min Rain = 0
KOD1 130644Z 17011KT M03/M10 A3024 RMK A01 T10291095  RH  061%=      5-min Rain = 0
KOD1 130645Z 17011KT M03/M10 A3024 RMK A01 T10301095  RH  061%=      5-min Rain = 0
KOD1 130646Z 17011KT M03/M10 A3024 RMK A01 T10301095  RH  061%=      5-min Rain = 0
KOD1 130647Z 17012KT M03/M09 A3024 RMK A01 T10291094  RH  061%=      5-min Rain = 0
KOD1 130648Z 17011KT M03/M10 A3024 RMK A01 T10291095  RH  060%=      5-min Rain = 0
KOD1 130649Z 17011KT M03/M10 A3024 RMK A01 T10291095  RH  060%=      5-min Rain = 0
KOD1 130650Z 17011KT M03/M09 A3024 RMK A01 T10291094  RH  060%=      5-min Rain = 0
KOD1 130651Z 18011KT M03/M09 A3024 RMK A01 T10291094  RH  060%=      5-min Rain = 0
KOD1 130652Z 18010KT M03/M10 A3024 RMK A01 T10291095  RH  060%=      5-min Rain = 0
KOD1 130653Z 18010KT M03/M10 A3024 RMK A01 T10291095  RH  060%=      5-min Rain = 0
KOD1 130654Z 18010KT M03/M10 A3023 RMK A01 T10291095  RH  060%=      5-min Rain = 0
KOD1 130655Z 18009KT M03/M09 A3023 RMK A01 T10281094  RH  060%=      5-min Rain = 0
KOD1 130656Z 18009KT M03/M09 A3023 RMK A01 T10281094  RH  060%=      5-min Rain = 0
KOD1 130657Z 18009KT M03/M09 A3023 RMK A01 T10281094  RH  060%=      5-min Rain = 0
KOD1 130658Z 18011KT M03/M09 A3023 RMK A01 T10281094  RH  060%=      5-min Rain = 0
KOD1 130659Z 18009KT M03/M10 A3023 RMK A01 T10271095  RH  060%=      5-min Rain = 0
KOD1 130700Z 18010KT M03/M10 A3023 RMK A01 T10271095  RH  060%=      5-min Rain = 0
KOD1 130701Z 17011KT M03/M10 A3023 RMK A01 T10271095  RH  060%=      5-min Rain = 0
KOD1 130702Z 18011KT M03/M10 A3023 RMK A01 T10271095  RH  059%=      5-min Rain = 0
KOD1 130703Z 18011KT M03/M10 A3023 RMK A01 T10261095  RH  059%=      5-min Rain = 0
KOD1 130704Z 18011KT M03/M10 A3022 RMK A01 T10261095  RH  059%=      5-min Rain = 0
KOD1 130705Z 17011KT M03/M10 A3022 RMK A01 T10251095  RH  059%=      5-min Rain = 0
KOD1 130706Z 18011KT M03/M10 A3023 RMK A01 T10251095  RH  059%=      5-min Rain = 0
KOD1 130707Z 18010KT M03/M10 A3023 RMK A01 T10251095  RH  059%=      5-min Rain = 0
KOD1 130708Z 18010KT M03/M10 A3023 RMK A01 T10251095  RH  059%=      5-min Rain = 0
KOD1 130709Z 17011KT M03/M10 A3023 RMK A01 T10261095  RH  059%=      5-min Rain = 0
KOD1 130710Z 18012KT M03/M10 A3023 RMK A01 T10251095  RH  059%=      5-min Rain = 0
KOD1 130711Z 17012KT M03/M10 A3023 RMK A01 T10251095  RH  058%=      5-min Rain = 0
KOD1 130712Z 18012KT M03/M10 A3023 RMK A01 T10251095  RH  058%=      5-min Rain = 0
KOD1 130713Z 18012KT M02/M10 A3023 RMK A01 T10241095  RH  058%=      5-min Rain = 0
KOD1 130714Z 18012KT M02/M10 A3023 RMK A01 T10241096  RH  058%=      5-min Rain = 0
KOD1 130715Z 18012KT M02/M10 A3023 RMK A01 T10241096  RH  058%=      5-min Rain = 0
KOD1 130716Z 17010KT M02/M10 A3022 RMK A01 T10241096  RH  058%=      5-min Rain = 0
KOD1 130717Z 17012KT M03/M10 A3022 RMK A01 T10251095  RH  058%=      5-min Rain = 0
KOD1 130718Z 17011KT M03/M10 A3022 RMK A01 T10251095  RH  058%=      5-min Rain = 0
KOD1 130719Z 18013KT M03/M10 A3022 RMK A01 T10251095  RH  058%=      5-min Rain = 0
KOD1 130720Z 17012KT M02/M10 A3022 RMK A01 T10241095  RH  058%=      5-min Rain = 0
KOD1 130721Z 17011KT M03/M10 A3022 RMK A01 T10251095  RH  058%=      5-min Rain = 0
KOD1 130722Z 17012KT M03/M10 A3022 RMK A01 T10251095  RH  059%=      5-min Rain = 0
KOD1 130723Z 17012KT M03/M10 A3022 RMK A01 T10251095  RH  058%=      5-min Rain = 0
KOD1 130724Z 17011KT M03/M10 A3022 RMK A01 T10251096  RH  058%=      5-min Rain = 0
KOD1 130725Z 17013KT M03/M10 A3022 RMK A01 T10251095  RH  059%=      5-min Rain = 0
KOD1 130726Z 17014KT M03/M10 A3022 RMK A01 T10251095  RH  058%=      5-min Rain = 0
KOD1 130727Z 17014KT M03/M10 A3022 RMK A01 T10251096  RH  058%=      5-min Rain = 0
KOD1 130728Z 17013KT M02/M10 A3022 RMK A01 T10241096  RH  058%=      5-min Rain = 0
KOD1 130729Z 17012KT M03/M10 A3022 RMK A01 T10251096  RH  058%=      5-min Rain = 0
KOD1 130730Z 17012KT M03/M10 A3022 RMK A01 T10251095  RH  059%=      5-min Rain = 0
KOD1 130731Z 17012KT M03/M10 A3022 RMK A01 T10251095  RH  059%=      5-min Rain = 0
KOD1 130732Z 17012KT M03/M10 A3022 RMK A01 T10251095  RH  059%=      5-min Rain = 0
KOD1 130733Z 17012KT M03/M10 A3022 RMK A01 T10261095  RH  059%=      5-min Rain = 0
KOD1 130734Z 17013KT M03/M10 A3022 RMK A01 T10261095  RH  059%=      5-min Rain = 0
KOD1 130735Z 17013KT M03/M10 A3022 RMK A01 T10261095  RH  059%=      5-min Rain = 0
KOD1 130736Z 17013KT M03/M10 A3022 RMK A01 T10251095  RH  059%=      5-min Rain = 0
KOD1 130737Z 17012KT M03/M10 A3021 RMK A01 T10261095  RH  059%=      5-min Rain = 0
KOD1 130738Z 18014KT M03/M10 A3021 RMK A01 T10261095  RH  059%=      5-min Rain = 0
KOD1 130739Z 17013KT M03/M10 A3021 RMK A01 T10261095  RH  059%=      5-min Rain = 0
KOD1 130740Z 17013KT M03/M10 A3021 RMK A01 T10261095  RH  059%=      5-min Rain = 0
KOD1 130741Z 17015KT M03/M10 A3021 RMK A01 T10261095  RH  059%=      5-min Rain = 0
KOD1 130742Z 18014KT M03/M10 A3021 RMK A01 T10251095  RH  058%=      5-min Rain = 0
KOD1 130743Z 17014KT M02/M10 A3021 RMK A01 T10241095  RH  058%=      5-min Rain = 0
KOD1 130744Z 18012KT M03/M10 A3021 RMK A01 T10251095  RH  058%=      5-min Rain = 0
KOD1 130745Z 17012KT M03/M10 A3021 RMK A01 T10251095  RH  059%=      5-min Rain = 0
KOD1 130746Z 18013KT M03/M10 A3021 RMK A01 T10261095  RH  059%=      5-min Rain = 0
KOD1 130747Z 18013KT M03/M10 A3021 RMK A01 T10261095  RH  059%=      5-min Rain = 0
KOD1 130748Z 18012KT M03/M10 A3021 RMK A01 T10261095  RH  059%=      5-min Rain = 0
KOD1 130749Z 18012KT M03/M10 A3021 RMK A01 T10261095  RH  059%=      5-min Rain = 0
KOD1 130750Z 17013KT M03/M10 A3021 RMK A01 T10251095  RH  059%=      5-min Rain = 0
KOD1 130751Z 18013KT M03/M10 A3021 RMK A01 T10251095  RH  059%=      5-min Rain = 0
KOD1 130752Z 18013KT M03/M10 A3021 RMK A01 T10251095  RH  059%=      5-min Rain = 0
KOD1 130753Z 18014KT M03/M10 A3021 RMK A01 T10251095  RH  059%=      5-min Rain = 0
KOD1 130754Z 17014KT M03/M10 A3021 RMK A01 T10251095  RH  059%=      5-min Rain = 0
KOD1 130755Z 18015KT M03/M10 A3021 RMK A01 T10251095  RH  058%=      5-min Rain = 0
KOD1 130756Z 18014KT M03/M10 A3021 RMK A01 T10251096  RH  058%=      5-min Rain = 0
KOD1 130757Z 18014KT M02/M10 A3021 RMK A01 T10241095  RH  058%=      5-min Rain = 0
KOD1 130758Z 17014KT M03/M10 A3021 RMK A01 T10251095  RH  058%=      5-min Rain = 0
KOD1 130759Z 18015KT M03/M10 A3021 RMK A01 T10251095  RH  058%=      5-min Rain = 0
KOD1 130800Z 18015KT M03/M10 A3021 RMK A01 T10251095  RH  059%=      5-min Rain = 0
KOD1 130801Z 17016KT M03/M10 A3021 RMK A01 T10251095  RH  059%=      5-min Rain = 0
KOD1 130802Z 17016KT M03/M10 A3021 RMK A01 T10251095  RH  059%=      5-min Rain = 0
KOD1 130803Z 17015KT M03/M09 A3021 RMK A01 T10261094  RH  059%=      5-min Rain = 0
KOD1 130804Z 18015KT M03/M09 A3021 RMK A01 T10261094  RH  060%=      5-min Rain = 0
KOD1 130805Z 18015KT M03/M09 A3021 RMK A01 T10271094  RH  060%=      5-min Rain = 0
KOD1 130806Z 18016KT M03/M09 A3021 RMK A01 T10271094  RH  060%=      5-min Rain = 0
KOD1 130807Z 17015G20KT M03/M09 A3021 RMK A01 T10271094  RH  060%=      5-min Rain = 0
KOD1 130808Z 18015KT M03/M09 A3021 RMK A01 T10271093  RH  060%=      5-min Rain = 0
KOD1 130809Z 18015KT M03/M09 A3021 RMK A01 T10271094  RH  060%=      5-min Rain = 0
KOD1 130810Z 17015KT M03/M09 A3021 RMK A01 T10261094  RH  060%=      5-min Rain = 0
KOD1 130811Z 18014KT M03/M09 A3021 RMK A01 T10261094  RH  060%=      5-min Rain = 0
KOD1 130812Z 17014KT M03/M09 A3021 RMK A01 T10261094  RH  060%=      5-min Rain = 0
KOD1 130813Z 18013KT M03/M09 A3021 RMK A01 T10271093  RH  060%=      5-min Rain = 0
KOD1 130814Z 17015KT M03/M09 A3021 RMK A01 T10261093  RH  060%=      5-min Rain = 0
KOD1 130815Z 18016KT M03/M09 A3021 RMK A01 T10261094  RH  060%=      5-min Rain = 0
KOD1 130816Z 17016KT M03/M09 A302 RMK A01 T10251094  RH  059%=      5-min Rain = 0
KOD1 130817Z 17014KT M03/M09 A302 RMK A01 T10251094  RH  059%=      5-min Rain = 0
KOD1 130818Z 17014KT M03/M09 A3021 RMK A01 T10261094  RH  060%=      5-min Rain = 0
KOD1 130819Z 17015KT M03/M09 A3021 RMK A01 T10251093  RH  060%=      5-min Rain = 0
KOD1 130820Z 17015KT M03/M09 A3021 RMK A01 T10261093  RH  060%=      5-min Rain = 0
KOD1 130821Z 18017KT M03/M09 A3021 RMK A01 T10261093  RH  060%=      5-min Rain = 0
KOD1 130822Z 18016KT M03/M09 A3021 RMK A01 T10251093  RH  059%=      5-min Rain = 0
KOD1 130823Z 17015KT M03/M09 A3021 RMK A01 T10251094  RH  059%=      5-min Rain = 0
KOD1 130824Z 18015KT M03/M09 A3021 RMK A01 T10251093  RH  059%=      5-min Rain = 0
KOD1 130825Z 18015KT M03/M09 A3021 RMK A01 T10251093  RH  060%=      5-min Rain = 0
KOD1 130826Z 18014KT M03/M09 A3021 RMK A01 T10251093  RH  059%=      5-min Rain = 0
KOD1 130827Z 18016KT M03/M09 A3021 RMK A01 T10251093  RH  059%=      5-min Rain = 0
KOD1 130828Z 18016KT M03/M09 A3021 RMK A01 T10251093  RH  059%=      5-min Rain = 0
KOD1 130829Z 18015KT M03/M09 A3021 RMK A01 T10251094  RH  059%=      5-min Rain = 0
KOD1 130830Z 17016KT M03/M09 A302 RMK A01 T10251093  RH  059%=      5-min Rain = 0
KOD1 130831Z 18016KT M03/M09 A302 RMK A01 T10251093  RH  059%=      5-min Rain = 0
KOD1 130832Z 17016KT M03/M09 A302 RMK A01 T10251094  RH  059%=      5-min Rain = 0
KOD1 130833Z 17016KT M03/M09 A302 RMK A01 T10251093  RH  059%=      5-min Rain = 0
KOD1 130834Z 18016KT M03/M09 A302 RMK A01 T10251094  RH  059%=      5-min Rain = 0
KOD1 130835Z 18015KT M03/M09 A302 RMK A01 T10251093  RH  060%=      5-min Rain = 0
KOD1 130836Z 18016KT M03/M09 A302 RMK A01 T10251093  RH  060%=      5-min Rain = 0
KOD1 130837Z 18014KT M03/M09 A302 RMK A01 T10251093  RH  060%=      5-min Rain = 0
KOD1 130838Z 18017KT M03/M09 A302 RMK A01 T10251093  RH  060%=      5-min Rain = 0
KOD1 130839Z 18016KT M03/M09 A302 RMK A01 T10251093  RH  060%=      5-min Rain = 0
KOD1 130840Z 18015KT M03/M09 A302 RMK A01 T10251093  RH  060%=      5-min Rain = 0
KOD1 130841Z 17016KT M03/M09 A302 RMK A01 T10251093  RH  060%=      5-min Rain = 0
KOD1 130842Z 17016KT M03/M09 A302 RMK A01 T10261093  RH  060%=      5-min Rain = 0
KOD1 130843Z 17015KT M03/M09 A3019 RMK A01 T10251093  RH  060%=      5-min Rain = 0
KOD1 130844Z 17015KT M03/M09 A3019 RMK A01 T10261093  RH  060%=      5-min Rain = 0
KOD1 130845Z 17015KT M03/M09 A3019 RMK A01 T10261092  RH  060%=      5-min Rain = 0
KOD1 130846Z 17014KT M03/M09 A3019 RMK A01 T10261093  RH  060%=      5-min Rain = 0
KOD1 130847Z 17014KT M03/M09 A3019 RMK A01 T10261093  RH  060%=      5-min Rain = 0
KOD1 130848Z 17015KT M03/M09 A3019 RMK A01 T10261093  RH  060%=      5-min Rain = 0
KOD1 130849Z 17016KT M03/M09 A3019 RMK A01 T10261093  RH  060%=      5-min Rain = 0
KOD1 130850Z 17016KT M03/M09 A3019 RMK A01 T10261093  RH  060%=      5-min Rain = 0
KOD1 130851Z 17015KT M03/M09 A3019 RMK A01 T10251094  RH  059%=      5-min Rain = 0
KOD1 130852Z 18015KT M03/M09 A3019 RMK A01 T10251094  RH  059%=      5-min Rain = 0
KOD1 130853Z 17014KT M03/M09 A3019 RMK A01 T10251094  RH  059%=      5-min Rain = 0
KOD1 130854Z 17014KT M03/M09 A3019 RMK A01 T10261093  RH  060%=      5-min Rain = 0
KOD1 130855Z 17014KT M03/M09 A3019 RMK A01 T10271093  RH  060%=      5-min Rain = 0
KOD1 130856Z 18014KT M03/M09 A3019 RMK A01 T10271092  RH  061%=      5-min Rain = 0
KOD1 130857Z 17014KT M03/M09 A3019 RMK A01 T10271092  RH  061%=      5-min Rain = 0
KOD1 130858Z 17013KT M03/M09 A3019 RMK A01 T10271092  RH  061%=      5-min Rain = 0
KOD1 130859Z 17013KT M03/M09 A3018 RMK A01 T10281092  RH  061%=      5-min Rain = 0
KOD1 130900Z 17013KT M03/M09 A3018 RMK A01 T10281092  RH  061%=      5-min Rain = 0
KOD1 130901Z 18013KT M03/M09 A3019 RMK A01 T10281092  RH  061%=      5-min Rain = 0
KOD1 130902Z 18014KT M03/M09 A3018 RMK A01 T10281092  RH  061%=      5-min Rain = 0
KOD1 130903Z 17015KT M03/M09 A3018 RMK A01 T10281092  RH  061%=      5-min Rain = 0
KOD1 130904Z 17015KT M03/M09 A3018 RMK A01 T10271093  RH  061%=      5-min Rain = 0
KOD1 130905Z 18014KT M03/M09 A3018 RMK A01 T10271093  RH  061%=      5-min Rain = 0
KOD1 130906Z 18013KT M03/M09 A3018 RMK A01 T10271093  RH  061%=      5-min Rain = 0
KOD1 130907Z 18014KT M03/M09 A3018 RMK A01 T10271092  RH  061%=      5-min Rain = 0
KOD1 130908Z 17013KT M03/M09 A3018 RMK A01 T10271093  RH  061%=      5-min Rain = 0
KOD1 130909Z 18013KT M03/M09 A3018 RMK A01 T10281093  RH  061%=      5-min Rain = 0
KOD1 130910Z 18013KT M03/M09 A3018 RMK A01 T10281093  RH  061%=      5-min Rain = 0
KOD1 130911Z 18014KT M03/M09 A3018 RMK A01 T10281092  RH  061%=      5-min Rain = 0
KOD1 130912Z 18013KT M03/M09 A3018 RMK A01 T10281092  RH  061%=      5-min Rain = 0
KOD1 130913Z 18013KT M03/M09 A3018 RMK A01 T10281092  RH  061%=      5-min Rain = 0
KOD1 130914Z 17012KT M03/M09 A3018 RMK A01 T10291092  RH  062%=      5-min Rain = 0
KOD1 130915Z 18013KT M03/M09 A3018 RMK A01 T10291092  RH  062%=      5-min Rain = 0
KOD1 130916Z 18013KT M03/M09 A3018 RMK A01 T10291092  RH  062%=      5-min Rain = 0
KOD1 130917Z 18015KT M03/M09 A3017 RMK A01 T10291092  RH  062%=      5-min Rain = 0
KOD1 130918Z 18014KT M03/M09 A3017 RMK A01 T10291092  RH  062%=      5-min Rain = 0
KOD1 130919Z 18014KT M03/M09 A3017 RMK A01 T10291092  RH  062%=      5-min Rain = 0
KOD1 130920Z 18015KT M03/M09 A3017 RMK A01 T10281092  RH  061%=      5-min Rain = 0
KOD1 130921Z 18015KT M03/M09 A3017 RMK A01 T10281093  RH  061%=      5-min Rain = 0
KOD1 130922Z 18014KT M03/M09 A3017 RMK A01 T10271093  RH  061%=      5-min Rain = 0
KOD1 130923Z 17014KT M03/M09 A3017 RMK A01 T10271093  RH  061%=      5-min Rain = 0
KOD1 130924Z 17013KT M03/M09 A3017 RMK A01 T10281093  RH  061%=      5-min Rain = 0
KOD1 130925Z 17015KT M03/M09 A3017 RMK A01 T10281092  RH  061%=      5-min Rain = 0
KOD1 130926Z 17013KT M03/M09 A3017 RMK A01 T10281092  RH  061%=      5-min Rain = 0
KOD1 130927Z 17013KT M03/M09 A3017 RMK A01 T10291092  RH  061%=      5-min Rain = 0
KOD1 130928Z 17013KT M03/M09 A3016 RMK A01 T10291092  RH  061%=      5-min Rain = 0
KOD1 130929Z 17012KT M03/M09 A3016 RMK A01 T10291092  RH  062%=      5-min Rain = 0
KOD1 130930Z 17013KT M03/M09 A3016 RMK A01 T10291092  RH  062%=      5-min Rain = 0
KOD1 130931Z 17012KT M03/M09 A3016 RMK A01 T10301092  RH  062%=      5-min Rain = 0
KOD1 130932Z 17013KT M03/M09 A3016 RMK A01 T10291092  RH  062%=      5-min Rain = 0
KOD1 130933Z 17013KT M03/M09 A3016 RMK A01 T10291092  RH  061%=      5-min Rain = 0
KOD1 130934Z 17012KT M03/M09 A3016 RMK A01 T10291092  RH  062%=      5-min Rain = 0
KOD1 130935Z 17012KT M03/M09 A3016 RMK A01 T10301092  RH  062%=      5-min Rain = 0
KOD1 130936Z 17013KT M03/M09 A3016 RMK A01 T10301091  RH  063%=      5-min Rain = 0
KOD1 130937Z 17013KT M03/M09 A3015 RMK A01 T10301092  RH  062%=      5-min Rain = 0
KOD1 130938Z 17013KT M03/M09 A3015 RMK A01 T10301092  RH  062%=      5-min Rain = 0
KOD1 130939Z 17015KT M03/M09 A3015 RMK A01 T10291092  RH  062%=      5-min Rain = 0
KOD1 130940Z 17015KT M03/M09 A3015 RMK A01 T10291092  RH  062%=      5-min Rain = 0
KOD1 130941Z 17015KT M03/M09 A3015 RMK A01 T10291092  RH  062%=      5-min Rain = 0
KOD1 130942Z 17014KT M03/M09 A3015 RMK A01 T10291092  RH  061%=      5-min Rain = 0
KOD1 130943Z 17014KT M03/M09 A3015 RMK A01 T10281092  RH  061%=      5-min Rain = 0
KOD1 130944Z 17015KT M03/M09 A3015 RMK A01 T10281093  RH  061%=      5-min Rain = 0
KOD1 130945Z 17015KT M03/M09 A3015 RMK A01 T10271093  RH  061%=      5-min Rain = 0
KOD1 130946Z 17014KT M03/M09 A3015 RMK A01 T10271093  RH  060%=      5-min Rain = 0
KOD1 130947Z 17014KT M03/M09 A3015 RMK A01 T10271094  RH  060%=      5-min Rain = 0
KOD1 130948Z 17014KT M03/M09 A3015 RMK A01 T10271093  RH  060%=      5-min Rain = 0
KOD1 130949Z 17013KT M03/M09 A3015 RMK A01 T10271094  RH  060%=      5-min Rain = 0
KOD1 130950Z 17015KT M03/M09 A3015 RMK A01 T10271094  RH  060%=      5-min Rain = 0
KOD1 130951Z 18014KT M03/M09 A3015 RMK A01 T10271094  RH  060%=      5-min Rain = 0
KOD1 130952Z 17015KT M03/M09 A3015 RMK A01 T10261094  RH  060%=      5-min Rain = 0
KOD1 130953Z 17015KT M03/M09 A3015 RMK A01 T10261094  RH  060%=      5-min Rain = 0
KOD1 130954Z 17015KT M03/M09 A3015 RMK A01 T10271094  RH  060%=      5-min Rain = 0
KOD1 130955Z 18015KT M03/M09 A3015 RMK A01 T10271094  RH  060%=      5-min Rain = 0
KOD1 130956Z 18014KT M03/M09 A3015 RMK A01 T10271094  RH  060%=      5-min Rain = 0
KOD1 130957Z 18015KT M03/M09 A3015 RMK A01 T10271094  RH  060%=      5-min Rain = 0
KOD1 130958Z 18014KT M03/M09 A3015 RMK A01 T10271094  RH  060%=      5-min Rain = 0
KOD1 130959Z 18015KT M03/M09 A3015 RMK A01 T10281094  RH  061%=      5-min Rain = 0
KOD1 131000Z 18016KT M03/M09 A3015 RMK A01 T10281094  RH  060%=      5-min Rain = 0
KOD1 131001Z 18015KT M03/M09 A3015 RMK A01 T10271094  RH  060%=      5-min Rain = 0
KOD1 131002Z 18015KT M03/M09 A3015 RMK A01 T10271094  RH  060%=      5-min Rain = 0
KOD1 131003Z 18015KT M03/M09 A3015 RMK A01 T10271094  RH  060%=      5-min Rain = 0
KOD1 131004Z 18014KT M03/M09 A3015 RMK A01 T10271094  RH  060%=      5-min Rain = 0
KOD1 131005Z 18015KT M03/M10 A3015 RMK A01 T10271095  RH  060%=      5-min Rain = 0
KOD1 131006Z 18016KT M03/M10 A3015 RMK A01 T10271095  RH  060%=      5-min Rain = 0
KOD1 131007Z 18015KT M03/M10 A3015 RMK A01 T10271095  RH  060%=      5-min Rain = 0
KOD1 131008Z 18015KT M03/M10 A3015 RMK A01 T10271095  RH  060%=      5-min Rain = 0
KOD1 131009Z 18015KT M03/M09 A3015 RMK A01 T10271094  RH  060%=      5-min Rain = 0
KOD1 131010Z 18015KT M03/M10 A3015 RMK A01 T10271095  RH  059%=      5-min Rain = 0
KOD1 131011Z 18015KT M03/M10 A3015 RMK A01 T10271095  RH  060%=      5-min Rain = 0
KOD1 131012Z 18014KT M03/M10 A3015 RMK A01 T10271095  RH  060%=      5-min Rain = 0
KOD1 131013Z 18014KT M03/M09 A3015 RMK A01 T10271094  RH  060%=      5-min Rain = 0
KOD1 131014Z 18015KT M03/M10 A3015 RMK A01 T10271095  RH  060%=      5-min Rain = 0
KOD1 131015Z 18013KT M03/M10 A3015 RMK A01 T10271095  RH  059%=      5-min Rain = 0
KOD1 131016Z 18014KT M03/M10 A3015 RMK A01 T10271096  RH  059%=      5-min Rain = 0
KOD1 131017Z 18015KT M03/M10 A3015 RMK A01 T10271095  RH  059%=      5-min Rain = 0
KOD1 131018Z 18015KT M03/M10 A3015 RMK A01 T10261096  RH  059%=      5-min Rain = 0
KOD1 131019Z 18015KT M03/M10 A3015 RMK A01 T10251096  RH  058%=      5-min Rain = 0
KOD1 131020Z 18015KT M03/M10 A3015 RMK A01 T10251096  RH  058%=      5-min Rain = 0
KOD1 131021Z 17014KT M03/M10 A3015 RMK A01 T10261097  RH  058%=      5-min Rain = 0
KOD1 131022Z 18017KT M03/M10 A3014 RMK A01 T10261096  RH  058%=      5-min Rain = 0
KOD1 131023Z 18015KT M03/M10 A3015 RMK A01 T10251097  RH  058%=      5-min Rain = 0
KOD1 131024Z 18016KT M02/M10 A3015 RMK A01 T10241097  RH  057%=      5-min Rain = 0
KOD1 131025Z 18015KT M02/M10 A3014 RMK A01 T10241097  RH  057%=      5-min Rain = 0
KOD1 131026Z 18015KT M03/M10 A3014 RMK A01 T10251097  RH  057%=      5-min Rain = 0
KOD1 131027Z 18015KT M03/M10 A3014 RMK A01 T10251097  RH  057%=      5-min Rain = 0
KOD1 131028Z 18015KT M03/M10 A3014 RMK A01 T10251097  RH  058%=      5-min Rain = 0
KOD1 131029Z 18015KT M03/M10 A3015 RMK A01 T10251098  RH  057%=      5-min Rain = 0
KOD1 131030Z 18016KT M03/M10 A3015 RMK A01 T10251098  RH  058%=      5-min Rain = 0
KOD1 131031Z 18016KT M03/M10 A3015 RMK A01 T10251098  RH  058%=      5-min Rain = 0
KOD1 131032Z 18015KT M03/M10 A3015 RMK A01 T10251098  RH  057%=      5-min Rain = 0
KOD1 131033Z 18015KT M03/M10 A3015 RMK A01 T10251098  RH  057%=      5-min Rain = 0
KOD1 131034Z 18014KT M03/M10 A3015 RMK A01 T10251098  RH  057%=      5-min Rain = 0
KOD1 131035Z 17015KT M03/M10 A3015 RMK A01 T10261098  RH  058%=      5-min Rain = 0
KOD1 131036Z 18014KT M03/M10 A3015 RMK A01 T10261097  RH  058%=      5-min Rain = 0
KOD1 131037Z 18015KT M03/M10 A3015 RMK A01 T10271097  RH  058%=      5-min Rain = 0
KOD1 131038Z 17014KT M03/M10 A3014 RMK A01 T10271097  RH  058%=      5-min Rain = 0
KOD1 131039Z 17015KT M03/M10 A3014 RMK A01 T10271097  RH  058%=      5-min Rain = 0
KOD1 131040Z 17015KT M03/M10 A3014 RMK A01 T10271097  RH  058%=      5-min Rain = 0
KOD1 131041Z 18016KT M03/M10 A3014 RMK A01 T10271097  RH  058%=      5-min Rain = 0
KOD1 131042Z 18015KT M03/M10 A3014 RMK A01 T10261098  RH  058%=      5-min Rain = 0
KOD1 131043Z 17016KT M03/M10 A3014 RMK A01 T10261098  RH  058%=      5-min Rain = 0
KOD1 131044Z 17016KT M03/M10 A3014 RMK A01 T10261098  RH  057%=      5-min Rain = 0
KOD1 131045Z 17017KT M03/M10 A3014 RMK A01 T10251099  RH  057%=      5-min Rain = 0
KOD1 131046Z 18017KT M02/M10 A3014 RMK A01 T10241099  RH  056%=      5-min Rain = 0
KOD1 131047Z 18017KT M02/M10 A3014 RMK A01 T10231099  RH  056%=      5-min Rain = 0
KOD1 131048Z 18016KT M02/M10 A3014 RMK A01 T10231100  RH  056%=      5-min Rain = 0
KOD1 131049Z 17016KT M02/M10 A3014 RMK A01 T10231100  RH  056%=      5-min Rain = 0
KOD1 131050Z 18016KT M02/M10 A3014 RMK A01 T10221100  RH  055%=      5-min Rain = 0
KOD1 131051Z 18017KT M02/M10 A3014 RMK A01 T10231100  RH  056%=      5-min Rain = 0
KOD1 131052Z 18017KT M02/M10 A3014 RMK A01 T10221100  RH  055%=      5-min Rain = 0
KOD1 131053Z 17015KT M02/M10 A3014 RMK A01 T10221100  RH  055%=      5-min Rain = 0
KOD1 131054Z 17017KT M02/M10 A3013 RMK A01 T10221100  RH  055%=      5-min Rain = 0
KOD1 131055Z 17015KT M02/M10 A3013 RMK A01 T10211100  RH  055%=      5-min Rain = 0
KOD1 131056Z 17017KT M02/M10 A3013 RMK A01 T10221100  RH  055%=      5-min Rain = 0
KOD1 131057Z 17018KT M02/M10 A3013 RMK A01 T10221100  RH  055%=      5-min Rain = 0
KOD1 131058Z 18018KT M02/M10 A3013 RMK A01 T10211100  RH  055%=      5-min Rain = 0
KOD1 131059Z 17018KT M02/M10 A3013 RMK A01 T10201101  RH  054%=      5-min Rain = 0
KOD1 131100Z 17018KT M02/M10 A3013 RMK A01 T10201101  RH  054%=      5-min Rain = 0
KOD1 131101Z 17017KT M02/M10 A3013 RMK A01 T10201101  RH  054%=      5-min Rain = 0
KOD1 131102Z 17017KT M02/M10 A3013 RMK A01 T10201100  RH  054%=      5-min Rain = 0
KOD1 131103Z 17018KT M02/M10 A3013 RMK A01 T10201101  RH  054%=      5-min Rain = 0
KOD1 131104Z 17016KT M02/M10 A3013 RMK A01 T10211100  RH  055%=      5-min Rain = 0
KOD1 131105Z 17017KT M02/M10 A3013 RMK A01 T10221100  RH  055%=      5-min Rain = 0
KOD1 131106Z 17017KT M02/M10 A3013 RMK A01 T10221100  RH  055%=      5-min Rain = 0
KOD1 131107Z 17016KT M02/M10 A3013 RMK A01 T10221100  RH  055%=      5-min Rain = 0
KOD1 131108Z 17016KT M02/M10 A3013 RMK A01 T10231100  RH  056%=      5-min Rain = 0
KOD1 131109Z 17018G23KT M02/M10 A3013 RMK A01 T10231099  RH  056%=      5-min Rain = 0
KOD1 131110Z 17017KT M02/M10 A3013 RMK A01 T10231099  RH  056%=      5-min Rain = 0
KOD1 131111Z 17017KT M02/M10 A3013 RMK A01 T10231099  RH  056%=      5-min Rain = 0
KOD1 131112Z 17016KT M02/M10 A3013 RMK A01 T10221099  RH  056%=      5-min Rain = 0
KOD1 131113Z 17018KT M02/M10 A3013 RMK A01 T10221099  RH  056%=      5-min Rain = 0
KOD1 131114Z 17017KT M02/M10 A3013 RMK A01 T10221099  RH  056%=      5-min Rain = 0
KOD1 131115Z 17017KT M02/M10 A3013 RMK A01 T10221099  RH  056%=      5-min Rain = 0
KOD1 131116Z 18020KT M02/M10 A3013 RMK A01 T10211099  RH  055%=      5-min Rain = 0
KOD1 131117Z 17017KT M02/M10 A3013 RMK A01 T10201099  RH  055%=      5-min Rain = 0
KOD1 131118Z 17018KT M02/M10 A3013 RMK A01 T10201099  RH  055%=      5-min Rain = 0
KOD1 131119Z 17017G23KT M02/M10 A3013 RMK A01 T10201100  RH  055%=      5-min Rain = 0
KOD1 131120Z 18016KT M02/M10 A3013 RMK A01 T10201099  RH  055%=      5-min Rain = 0
KOD1 131121Z 17016KT M02/M10 A3013 RMK A01 T10211099  RH  055%=      5-min Rain = 0
KOD1 131122Z 18016KT M02/M10 A3013 RMK A01 T10211099  RH  055%=      5-min Rain = 0
KOD1 131123Z 18018KT M02/M10 A3012 RMK A01 T10211099  RH  055%=      5-min Rain = 0
KOD1 131124Z 17018KT M02/M10 A3013 RMK A01 T10201099  RH  055%=      5-min Rain = 0
KOD1 131125Z 17016KT M02/M10 A3013 RMK A01 T10201099  RH  055%=      5-min Rain = 0
KOD1 131126Z 17017KT M02/M10 A3013 RMK A01 T10201099  RH  055%=      5-min Rain = 0
KOD1 131127Z 17017KT M02/M10 A3013 RMK A01 T10211099  RH  055%=      5-min Rain = 0
KOD1 131128Z 17016KT M02/M10 A3013 RMK A01 T10211098  RH  055%=      5-min Rain = 0
KOD1 131129Z 17017KT M02/M10 A3013 RMK A01 T10211099  RH  055%=      5-min Rain = 0
KOD1 131130Z 17016KT M02/M10 A3012 RMK A01 T10211099  RH  055%=      5-min Rain = 0
KOD1 131131Z 17017KT M02/M10 A3012 RMK A01 T10211098  RH  055%=      5-min Rain = 0
KOD1 131132Z 17017KT M02/M10 A3013 RMK A01 T10211099  RH  055%=      5-min Rain = 0
KOD1 131133Z 17016KT M02/M10 A3013 RMK A01 T10211098  RH  055%=      5-min Rain = 0
KOD1 131134Z 17016KT M02/M10 A3013 RMK A01 T10211098  RH  056%=      5-min Rain = 0
KOD1 131135Z 17015KT M02/M10 A3013 RMK A01 T10221098  RH  056%=      5-min Rain = 0
KOD1 131136Z 17018KT M02/M10 A3013 RMK A01 T10231098  RH  056%=      5-min Rain = 0
KOD1 131137Z 18015KT M02/M10 A3013 RMK A01 T10231098  RH  056%=      5-min Rain = 0
KOD1 131138Z 17015KT M02/M10 A3013 RMK A01 T10231098  RH  057%=      5-min Rain = 0
KOD1 131139Z 17015KT M02/M10 A3013 RMK A01 T10241098  RH  057%=      5-min Rain = 0
KOD1 131140Z 17014KT M02/M10 A3013 RMK A01 T10241098  RH  057%=      5-min Rain = 0
KOD1 131141Z 17014KT M03/M10 A3013 RMK A01 T10251097  RH  058%=      5-min Rain = 0
KOD1 131142Z 17015KT M03/M10 A3013 RMK A01 T10251097  RH  058%=      5-min Rain = 0
KOD1 131143Z 18015KT M02/M10 A3013 RMK A01 T10241097  RH  057%=      5-min Rain = 0
KOD1 131144Z 18015KT M03/M10 A3013 RMK A01 T10251097  RH  057%=      5-min Rain = 0
KOD1 131145Z 18014KT M03/M10 A3013 RMK A01 T10251097  RH  058%=      5-min Rain = 0
KOD1 131146Z 18015KT M03/M10 A3013 RMK A01 T10251097  RH  058%=      5-min Rain = 0
KOD1 131147Z 17013KT M03/M10 A3013 RMK A01 T10251097  RH  058%=      5-min Rain = 0
KOD1 131148Z 18014KT M03/M10 A3012 RMK A01 T10251096  RH  058%=      5-min Rain = 0
KOD1 131149Z 17015KT M03/M10 A3012 RMK A01 T10251096  RH  058%=      5-min Rain = 0
KOD1 131150Z 18015KT M03/M10 A3012 RMK A01 T10251096  RH  058%=      5-min Rain = 0
KOD1 131151Z 17014KT M03/M10 A3012 RMK A01 T10251096  RH  058%=      5-min Rain = 0
KOD1 131152Z 18014KT M03/M10 A3012 RMK A01 T10251096  RH  058%=      5-min Rain = 0
KOD1 131153Z 17016KT M03/M10 A3012 RMK A01 T10251096  RH  058%=      5-min Rain = 0
KOD1 131154Z 18015KT M02/M10 A3012 RMK A01 T10231096  RH  057%=      5-min Rain = 0
KOD1 131155Z 18015KT M02/M10 A3012 RMK A01 T10231096  RH  057%=      5-min Rain = 0
KOD1 131156Z 17013KT M02/M10 A3012 RMK A01 T10241096  RH  057%=      5-min Rain = 0
KOD1 131157Z 17014KT M03/M10 A3012 RMK A01 T10251096  RH  058%=      5-min Rain = 0
KOD1 131158Z 17015KT M02/M10 A3011 RMK A01 T10241096  RH  058%=      5-min Rain = 0
KOD1 131159Z 17014KT M02/M10 A3011 RMK A01 T10241096  RH  058%=      5-min Rain = 0
KOD1 131200Z 18014KT M02/M10 A3011 RMK A01 T10231096  RH  057%=      5-min Rain = 0
KOD1 131201Z 18014KT M02/M10 A3011 RMK A01 T10231096  RH  058%=      5-min Rain = 0
KOD1 131202Z 18014KT M02/M10 A3011 RMK A01 T10231096  RH  058%=      5-min Rain = 0
KOD1 131203Z 18014KT M02/M10 A3011 RMK A01 T10231096  RH  057%=      5-min Rain = 0
KOD1 131204Z 17015KT M02/M10 A3011 RMK A01 T10231096  RH  058%=      5-min Rain = 0
KOD1 131205Z 17014KT M02/M10 A3011 RMK A01 T10231095  RH  057%=      5-min Rain = 0
KOD1 131206Z 17014KT M02/M10 A3011 RMK A01 T10231096  RH  058%=      5-min Rain = 0
KOD1 131207Z 17014KT M02/M10 A3011 RMK A01 T10231095  RH  058%=      5-min Rain = 0
KOD1 131208Z 17012KT M02/M10 A3012 RMK A01 T10241095  RH  058%=      5-min Rain = 0
KOD1 131209Z 17013KT M02/M10 A3012 RMK A01 T10241095  RH  058%=      5-min Rain = 0
KOD1 131210Z 18012KT M02/M10 A3011 RMK A01 T10241095  RH  058%=      5-min Rain = 0
KOD1 131211Z 17014KT M02/M10 A3011 RMK A01 T10241095  RH  058%=      5-min Rain = 0
KOD1 131212Z 17013KT M02/M10 A3011 RMK A01 T10231095  RH  058%=      5-min Rain = 0
KOD1 131213Z 18013KT M02/M10 A3011 RMK A01 T10231095  RH  058%=      5-min Rain = 0
KOD1 131214Z 18012KT M02/M10 A3012 RMK A01 T10231095  RH  058%=      5-min Rain = 0
KOD1 131215Z 17012KT M02/M10 A3012 RMK A01 T10241095  RH  058%=      5-min Rain = 0
KOD1 131216Z 18012KT M02/M09 A3012 RMK A01 T10241094  RH  058%=      5-min Rain = 0
KOD1 131217Z 18012KT M02/M09 A3012 RMK A01 T10241094  RH  059%=      5-min Rain = 0
KOD1 131218Z 17012KT M02/M09 A3012 RMK A01 T10241094  RH  059%=      5-min Rain = 0
KOD1 131219Z 18012KT M02/M09 A3012 RMK A01 T10241094  RH  059%=      5-min Rain = 0
KOD1 131220Z 18011KT M02/M09 A3012 RMK A01 T10241094  RH  059%=      5-min Rain = 0
KOD1 131221Z 17012KT M03/M09 A3012 RMK A01 T10251094  RH  059%=      5-min Rain = 0
KOD1 131222Z 17012KT M03/M09 A3012 RMK A01 T10251094  RH  059%=      5-min Rain = 0
KOD1 131223Z 17013KT M03/M09 A3012 RMK A01 T10251094  RH  059%=      5-min Rain = 0
KOD1 131224Z 17012KT M03/M09 A3011 RMK A01 T10251094  RH  059%=      5-min Rain = 0
KOD1 131225Z 17012KT M03/M09 A3011 RMK A01 T10251094  RH  059%=      5-min Rain = 0
KOD1 131226Z 17011KT M03/M09 A3012 RMK A01 T10251094  RH  059%=      5-min Rain = 0
KOD1 131227Z 17012KT M03/M09 A3012 RMK A01 T10261094  RH  060%=      5-min Rain = 0
KOD1 131228Z 17012KT M03/M09 A3012 RMK A01 T10261094  RH  060%=      5-min Rain = 0
KOD1 131229Z 17012KT M03/M09 A3012 RMK A01 T10261094  RH  060%=      5-min Rain = 0
KOD1 131230Z 17012KT M03/M09 A3012 RMK A01 T10271094  RH  060%=      5-min Rain = 0
KOD1 131231Z 17011KT M03/M09 A3012 RMK A01 T10271093  RH  060%=      5-min Rain = 0
KOD1 131232Z 17011KT M03/M09 A3012 RMK A01 T10271093  RH  060%=      5-min Rain = 0
KOD1 131233Z 17011KT M03/M09 A3012 RMK A01 T10271093  RH  060%=      5-min Rain = 0
KOD1 131234Z 17011KT M03/M09 A3012 RMK A01 T10271094  RH  060%=      5-min Rain = 0
KOD1 131235Z 17011KT M03/M09 A3012 RMK A01 T10271093  RH  060%=      5-min Rain = 0
KOD1 131236Z 17012KT M03/M09 A3012 RMK A01 T10281093  RH  061%=      5-min Rain = 0
KOD1 131237Z 17011KT M03/M09 A3012 RMK A01 T10281093  RH  061%=      5-min Rain = 0
KOD1 131238Z 17011KT M03/M09 A3012 RMK A01 T10281093  RH  061%=      5-min Rain = 0
KOD1 131239Z 17010KT M03/M09 A3012 RMK A01 T10281093  RH  061%=      5-min Rain = 0
KOD1 131240Z 17011KT M03/M09 A3012 RMK A01 T10291092  RH  062%=      5-min Rain = 0
KOD1 131241Z 17011KT M03/M09 A3011 RMK A01 T10291092  RH  062%=      5-min Rain = 0
KOD1 131242Z 17012KT M03/M09 A3011 RMK A01 T10291092  RH  062%=      5-min Rain = 0
KOD1 131243Z 17012KT M03/M09 A3011 RMK A01 T10281092  RH  062%=      5-min Rain = 0
KOD1 131244Z 17012KT M03/M09 A3012 RMK A01 T10291092  RH  061%=      5-min Rain = 0
KOD1 131245Z 17011KT M03/M09 A3012 RMK A01 T10291092  RH  062%=      5-min Rain = 0
KOD1 131246Z 17013KT M03/M09 A3012 RMK A01 T10291092  RH  062%=      5-min Rain = 0
KOD1 131247Z 17012KT M03/M09 A3012 RMK A01 T10281092  RH  061%=      5-min Rain = 0
KOD1 131248Z 17011KT M03/M09 A3012 RMK A01 T10271092  RH  061%=      5-min Rain = 0
KOD1 131249Z 17011KT M03/M09 A3012 RMK A01 T10281092  RH  061%=      5-min Rain = 0
KOD1 131250Z 17012KT M03/M09 A3012 RMK A01 T10281092  RH  061%=      5-min Rain = 0
KOD1 131251Z 17012KT M03/M09 A3012 RMK A01 T10271092  RH  061%=      5-min Rain = 0
KOD1 131252Z 17012KT M03/M09 A3012 RMK A01 T10271092  RH  061%=      5-min Rain = 0
KOD1 131253Z 17012KT M03/M09 A3012 RMK A01 T10271092  RH  061%=      5-min Rain = 0
KOD1 131254Z 17012KT M03/M09 A3011 RMK A01 T10271092  RH  061%=      5-min Rain = 0
KOD1 131255Z 17012KT M03/M09 A3012 RMK A01 T10261092  RH  061%=      5-min Rain = 0
KOD1 131256Z 17013KT M03/M09 A3011 RMK A01 T10271092  RH  061%=      5-min Rain = 0
KOD1 131257Z 17014KT M03/M09 A3011 RMK A01 T10271092  RH  061%=      5-min Rain = 0
KOD1 131258Z 16014KT M03/M09 A3011 RMK A01 T10261092  RH  061%=      5-min Rain = 0
KOD1 131259Z 17014KT M03/M09 A3011 RMK A01 T10271092  RH  061%=      5-min Rain = 0
KOD1 131300Z 16014KT M03/M09 A3011 RMK A01 T10261092  RH  061%=      5-min Rain = 0
KOD1 131301Z 16014KT M03/M09 A3011 RMK A01 T10261092  RH  061%=      5-min Rain = 0
KOD1 131302Z 16014KT M03/M09 A3011 RMK A01 T10261092  RH  061%=      5-min Rain = 0
KOD1 131303Z 16015KT M03/M09 A3011 RMK A01 T10261092  RH  061%=      5-min Rain = 0
KOD1 131304Z 16015KT M03/M09 A3011 RMK A01 T10261092  RH  061%=      5-min Rain = 0
KOD1 131305Z 16014KT M03/M09 A3011 RMK A01 T10261092  RH  061%=      5-min Rain = 0
KOD1 131306Z 16016KT M03/M09 A3011 RMK A01 T10261092  RH  061%=      5-min Rain = 0
KOD1 131307Z 16015KT M03/M09 A3011 RMK A01 T10251092  RH  060%=      5-min Rain = 0
KOD1 131308Z 16015KT M03/M09 A3011 RMK A01 T10251092  RH  060%=      5-min Rain = 0
KOD1 131309Z 16015KT M03/M09 A3011 RMK A01 T10261092  RH  061%=      5-min Rain = 0
KOD1 131310Z 16013KT M03/M09 A3011 RMK A01 T10261092  RH  061%=      5-min Rain = 0
KOD1 131311Z 16014KT M03/M09 A3011 RMK A01 T10261092  RH  061%=      5-min Rain = 0
KOD1 131312Z 16014KT M03/M09 A301 RMK A01 T10271092  RH  061%=      5-min Rain = 0
KOD1 131313Z 16015KT M03/M09 A301 RMK A01 T10261091  RH  061%=      5-min Rain = 0
KOD1 131314Z 16015KT M03/M09 A301 RMK A01 T10271091  RH  061%=      5-min Rain = 0
KOD1 131315Z 16014KT M03/M09 A301 RMK A01 T10261091  RH  061%=      5-min Rain = 0
KOD1 131316Z 16014KT M03/M09 A301 RMK A01 T10271091  RH  061%=      5-min Rain = 0
KOD1 131317Z 16014KT M03/M09 A301 RMK A01 T10271091  RH  061%=      5-min Rain = 0
KOD1 131318Z 16014KT M03/M09 A301 RMK A01 T10261091  RH  061%=      5-min Rain = 0
KOD1 131319Z 15013KT M03/M09 A301 RMK A01 T10251091  RH  060%=      5-min Rain = 0
KOD1 131320Z 16014KT M03/M09 A301 RMK A01 T10251091  RH  061%=      5-min Rain = 0
KOD1 131321Z 16013G18KT M03/M09 A301 RMK A01 T10251091  RH  060%=      5-min Rain = 0
KOD1 131322Z 16015KT M03/M09 A301 RMK A01 T10251091  RH  060%=      5-min Rain = 0
KOD1 131323Z 15012KT M03/M09 A301 RMK A01 T10251092  RH  060%=      5-min Rain = 0
KOD1 131324Z 15013KT M03/M09 A301 RMK A01 T10251091  RH  060%=      5-min Rain = 0
KOD1 131325Z 15014KT M03/M09 A301 RMK A01 T10251092  RH  060%=      5-min Rain = 0
KOD1 131326Z 15012KT M03/M09 A301 RMK A01 T10251092  RH  060%=      5-min Rain = 0
KOD1 131327Z 15012KT M03/M09 A301 RMK A01 T10251092  RH  060%=      5-min Rain = 0
KOD1 131328Z 15011KT M02/M09 A301 RMK A01 T10241091  RH  060%=      5-min Rain = 0
KOD1 131329Z 15012KT M02/M09 A301 RMK A01 T10241091  RH  060%=      5-min Rain = 0
KOD1 131330Z 15011KT M02/M09 A301 RMK A01 T10241091  RH  060%=      5-min Rain = 0
KOD1 131331Z 15012KT M02/M09 A301 RMK A01 T10241091  RH  060%=      5-min Rain = 0
KOD1 131332Z 15011KT M02/M09 A301 RMK A01 T10231091  RH  060%=      5-min Rain = 0
KOD1 131333Z 16012KT M02/M09 A301 RMK A01 T10231091  RH  060%=      5-min Rain = 0
KOD1 131334Z 16013KT M02/M09 A301 RMK A01 T10231091  RH  059%=      5-min Rain = 0
KOD1 131335Z 16011KT M02/M09 A301 RMK A01 T10221091  RH  059%=      5-min Rain = 0
KOD1 131336Z 15012KT M02/M09 A301 RMK A01 T10221091  RH  059%=      5-min Rain = 0
KOD1 131337Z 16011KT M02/M09 A301 RMK A01 T10221091  RH  059%=      5-min Rain = 0
KOD1 131338Z 15011KT M02/M09 A301 RMK A01 T10221091  RH  059%=      5-min Rain = 0
KOD1 131339Z 15011KT M02/M09 A301 RMK A01 T10211090  RH  059%=      5-min Rain = 0
KOD1 131340Z 15011KT M02/M09 A301 RMK A01 T10211090  RH  059%=      5-min Rain = 0
KOD1 131341Z 16011KT M02/M09 A301 RMK A01 T10211090  RH  059%=      5-min Rain = 0
KOD1 131342Z 15011KT M02/M09 A301 RMK A01 T10211090  RH  059%=      5-min Rain = 0
KOD1 131343Z 15009KT M02/M09 A301 RMK A01 T10211090  RH  059%=      5-min Rain = 0
KOD1 131344Z 15010KT M02/M09 A301 RMK A01 T10211090  RH  059%=      5-min Rain = 0
KOD1 131345Z 15011KT M02/M09 A301 RMK A01 T10211090  RH  059%=      5-min Rain = 0
KOD1 131346Z 15010KT M02/M09 A301 RMK A01 T10211089  RH  060%=      5-min Rain = 0
KOD1 131347Z 15011KT M02/M09 A301 RMK A01 T10211089  RH  059%=      5-min Rain = 0
KOD1 131348Z 15010KT M02/M09 A301 RMK A01 T10201089  RH  059%=      5-min Rain = 0
KOD1 131349Z 15011KT M02/M09 A301 RMK A01 T10201088  RH  059%=      5-min Rain = 0
KOD1 131350Z 15010KT M02/M09 A301 RMK A01 T10201089  RH  059%=      5-min Rain = 0
KOD1 131351Z 15010KT M02/M09 A301 RMK A01 T10191089  RH  059%=      5-min Rain = 0
KOD1 131352Z 15009KT M02/M09 A301 RMK A01 T10191089  RH  059%=      5-min Rain = 0
KOD1 131353Z 16010KT M02/M09 A301 RMK A01 T10191088  RH  059%=      5-min Rain = 0
KOD1 131354Z 15010KT M02/M09 A301 RMK A01 T10191088  RH  059%=      5-min Rain = 0
KOD1 131355Z 14010KT M02/M09 A301 RMK A01 T10191088  RH  059%=      5-min Rain = 0
KOD1 131356Z 15012KT M02/M09 A301 RMK A01 T10191088  RH  059%=      5-min Rain = 0
KOD1 131357Z 15011KT M02/M09 A301 RMK A01 T10181088  RH  059%=      5-min Rain = 0
KOD1 131358Z 15010KT M02/M09 A301 RMK A01 T10171088  RH  058%=      5-min Rain = 0
KOD1 131359Z 15010KT M02/M09 A301 RMK A01 T10171088  RH  058%=      5-min Rain = 0
KOD1 131400Z 15010KT M02/M09 A301 RMK A01 T10161088  RH  058%=      5-min Rain = 0
KOD1 131401Z 15010KT M02/M09 A301 RMK A01 T10161088  RH  058%=      5-min Rain = 0
KOD1 131402Z 15010KT M02/M09 A301 RMK A01 T10161088  RH  058%=      5-min Rain = 0
KOD1 131403Z 15011KT M02/M09 A301 RMK A01 T10151087  RH  058%=      5-min Rain = 0
KOD1 131404Z 15010KT M01/M09 A301 RMK A01 T10141087  RH  057%=      5-min Rain = 0
KOD1 131405Z 16010KT M01/M09 A301 RMK A01 T10131086  RH  057%=      5-min Rain = 0
KOD1 131406Z 15011KT M01/M09 A301 RMK A01 T10121087  RH  057%=      5-min Rain = 0
KOD1 131407Z 15010KT M01/M09 A301 RMK A01 T10121087  RH  057%=      5-min Rain = 0
KOD1 131408Z 15011KT M01/M09 A301 RMK A01 T10111087  RH  057%=      5-min Rain = 0
KOD1 131409Z 15011KT M01/M09 A3011 RMK A01 T10111087  RH  056%=      5-min Rain = 0
KOD1 131410Z 16011KT M01/M09 A3011 RMK A01 T10101087  RH  056%=      5-min Rain = 0
KOD1 131411Z 16012KT M01/M09 A3011 RMK A01 T10091087  RH  056%=      5-min Rain = 0
KOD1 131412Z 16011KT M01/M09 A3011 RMK A01 T10091086  RH  056%=      5-min Rain = 0
KOD1 131413Z 15011KT M01/M09 A3011 RMK A01 T10081085  RH  056%=      5-min Rain = 0
KOD1 131414Z 15010KT M01/M09 A3011 RMK A01 T10081086  RH  055%=      5-min Rain = 0
KOD1 131415Z 16011KT M01/M09 A3011 RMK A01 T10071085  RH  056%=      5-min Rain = 0
KOD1 131416Z 16011KT M01/M09 A3011 RMK A01 T10061085  RH  056%=      5-min Rain = 0
KOD1 131417Z 16011KT M01/M09 A3011 RMK A01 T10061085  RH  055%=      5-min Rain = 0
KOD1 131418Z 15010KT M01/M09 A3011 RMK A01 T10051086  RH  055%=      5-min Rain = 0
KOD1 131419Z 16010KT M01/M09 A3011 RMK A01 T10051085  RH  055%=      5-min Rain = 0
KOD1 131420Z 16011KT M01/M09 A3011 RMK A01 T10051086  RH  054%=      5-min Rain = 0
KOD1 131421Z 16010KT M00/M09 A3011 RMK A01 T10041085  RH  055%=      5-min Rain = 0
KOD1 131422Z 16009KT M00/M08 A3011 RMK A01 T10041084  RH  055%=      5-min Rain = 0
KOD1 131423Z 16010KT M00/M08 A3011 RMK A01 T10031084  RH  054%=      5-min Rain = 0
KOD1 131424Z 16009KT M00/M08 A3011 RMK A01 T10021084  RH  054%=      5-min Rain = 0
KOD1 131425Z 16008KT M00/M08 A3011 RMK A01 T10011083  RH  054%=      5-min Rain = 0
KOD1 131426Z 16010KT 00/08 A3011 RMK A01 T00-00-83  RH  054%=      5-min Rain = 0
KOD1 131427Z 17011KT 00/08 A3011 RMK A01 T00000-84  RH  053%=      5-min Rain = 0
KOD1 131428Z 16011KT 00/09 A3011 RMK A01 T00000-85  RH  053%=      5-min Rain = 0
KOD1 131429Z 16011KT 00/M08 A3011 RMK A01 T00011084  RH  053%=      5-min Rain = 0
KOD1 131430Z 16011KT 00/M09 A3011 RMK A01 T00011086  RH  052%=      5-min Rain = 0
KOD1 131431Z 16011KT 00/M09 A3011 RMK A01 T00011085  RH  052%=      5-min Rain = 0
KOD1 131432Z 17012KT 00/M09 A3011 RMK A01 T00011086  RH  052%=      5-min Rain = 0
KOD1 131433Z 16011KT 00/M09 A3011 RMK A01 T00021086  RH  052%=      5-min Rain = 0
KOD1 131434Z 16009KT 00/M09 A3011 RMK A01 T00021086  RH  051%=      5-min Rain = 0
KOD1 131435Z 16009KT 00/M09 A3011 RMK A01 T00031085  RH  051%=      5-min Rain = 0
KOD1 131436Z 17012KT 00/M09 A3011 RMK A01 T00041085  RH  051%=      5-min Rain = 0
KOD1 131437Z 16011KT 01/M09 A3011 RMK A01 T00051086  RH  050%=      5-min Rain = 0
KOD1 131438Z 16009KT 01/M09 A3011 RMK A01 T00061086  RH  050%=      5-min Rain = 0
KOD1 131439Z 16009KT 01/M09 A3011 RMK A01 T00071086  RH  050%=      5-min Rain = 0
KOD1 131440Z 16010KT 01/M09 A3011 RMK A01 T00081086  RH  050%=      5-min Rain = 0
KOD1 131441Z 16011KT 01/M09 A3011 RMK A01 T00081087  RH  049%=      5-min Rain = 0
KOD1 131442Z 15011KT 01/M09 A3011 RMK A01 T00071088  RH  049%=      5-min Rain = 0
KOD1 131443Z 16010KT 01/M09 A3011 RMK A01 T00071087  RH  049%=      5-min Rain = 0
KOD1 131444Z 16012KT 01/M09 A3011 RMK A01 T00081086  RH  049%=      5-min Rain = 0
KOD1 131445Z 16012KT 01/M09 A3011 RMK A01 T00081087  RH  049%=      5-min Rain = 0
KOD1 131446Z 16011KT 01/M09 A3011 RMK A01 T00091087  RH  049%=      5-min Rain = 0
KOD1 131447Z 16011KT 01/M09 A3011 RMK A01 T00101086  RH  049%=      5-min Rain = 0
KOD1 131448Z 16011KT 01/M09 A3011 RMK A01 T00101086  RH  049%=      5-min Rain = 0
KOD1 131449Z 16011KT 01/M09 A3011 RMK A01 T00101087  RH  048%=      5-min Rain = 0
KOD1 131450Z 16010KT 01/M09 A3011 RMK A01 T00111086  RH  048%=      5-min Rain = 0
KOD1 131451Z 16013KT 01/M09 A3011 RMK A01 T00121086  RH  048%=      5-min Rain = 0
KOD1 131452Z 16012KT 01/M09 A3011 RMK A01 T00131087  RH  047%=      5-min Rain = 0
KOD1 131453Z 17012KT 01/M09 A3011 RMK A01 T00121087  RH  047%=      5-min Rain = 0
KOD1 131454Z 17011KT 01/M09 A3011 RMK A01 T00121087  RH  047%=      5-min Rain = 0
KOD1 131455Z 17009KT 01/M09 A3011 RMK A01 T00131087  RH  047%=      5-min Rain = 0
KOD1 131456Z 16012KT 02/M08 A3011 RMK A01 T00151084  RH  048%=      5-min Rain = 0
KOD1 131457Z 16013KT 02/M09 A3011 RMK A01 T00161087  RH  046%=      5-min Rain = 0
KOD1 131458Z 17015KT 02/M09 A3011 RMK A01 T00151089  RH  046%=      5-min Rain = 0
KOD1 131459Z 17014KT 01/M09 A3011 RMK A01 T00141090  RH  046%=      5-min Rain = 0
KOD1 131500Z 18013KT 01/M09 A3011 RMK A01 T00141090  RH  046%=      5-min Rain = 0
KOD1 131501Z 18013KT 02/M09 A3011 RMK A01 T00161087  RH  046%=      5-min Rain = 0
KOD1 131502Z 17013KT 02/M09 A3011 RMK A01 T00171087  RH  046%=      5-min Rain = 0
KOD1 131503Z 17012KT 02/M09 A3011 RMK A01 T00181088  RH  045%=      5-min Rain = 0
KOD1 131504Z 17015KT 02/M09 A3011 RMK A01 T00181088  RH  045%=      5-min Rain = 0
KOD1 131505Z 17013KT 02/M09 A3011 RMK A01 T00181088  RH  045%=      5-min Rain = 0
KOD1 131506Z 17011KT 02/M09 A3011 RMK A01 T00181087  RH  045%=      5-min Rain = 0
KOD1 131507Z 17015KT 02/M09 A3011 RMK A01 T00201086  RH  045%=      5-min Rain = 0
KOD1 131508Z 17014KT 02/M09 A3011 RMK A01 T00201088  RH  045%=      5-min Rain = 0
KOD1 131509Z 18015KT 02/M09 A301 RMK A01 T00191087  RH  045%=      5-min Rain = 0
KOD1 131510Z 20012G17KT 02/M09 A301 RMK A01 T00201090  RH  044%=      5-min Rain = 0
KOD1 131511Z 18014KT 02/M09 A301 RMK A01 T00211088  RH  044%=      5-min Rain = 0
KOD1 131512Z 17014KT 02/M09 A301 RMK A01 T00211086  RH  045%=      5-min Rain = 0
KOD1 131513Z 18015KT 02/M09 A301 RMK A01 T00201087  RH  045%=      5-min Rain = 0
KOD1 131514Z 17013KT 02/M09 A301 RMK A01 T00211087  RH  045%=      5-min Rain = 0
KOD1 131515Z 17013KT 02/M09 A3011 RMK A01 T00211086  RH  045%=      5-min Rain = 0
KOD1 131516Z 18012KT 02/M08 A3011 RMK A01 T00231084  RH  045%=      5-min Rain = 0
KOD1 131517Z 17012KT 02/M09 A3011 RMK A01 T00241085  RH  045%=      5-min Rain = 0
KOD1 131518Z 18012KT 02/M09 A3011 RMK A01 T00231085  RH  045%=      5-min Rain = 0
KOD1 131519Z 18012KT 03/M08 A3011 RMK A01 T00261081  RH  045%=      5-min Rain = 0
KOD1 131520Z 18012KT 03/M08 A3011 RMK A01 T00271083  RH  044%=      5-min Rain = 0
KOD1 131521Z 17011KT 03/M08 A301 RMK A01 T00261084  RH  044%=      5-min Rain = 0
KOD1 131522Z 17013KT 03/M08 A301 RMK A01 T00261083  RH  044%=      5-min Rain = 0
KOD1 131523Z 17013G19KT 03/M08 A301 RMK A01 T00261084  RH  044%=      5-min Rain = 0
KOD1 131524Z 17015KT 03/M09 A301 RMK A01 T00251086  RH  044%=      5-min Rain = 0
KOD1 131525Z 18014KT 03/M09 A301 RMK A01 T00251085  RH  044%=      5-min Rain = 0
KOD1 131526Z 18013KT 03/M08 A301 RMK A01 T00281082  RH  044%=      5-min Rain = 0
KOD1 131527Z 18014KT 03/M08 A301 RMK A01 T00301080  RH  044%=      5-min Rain = 0
KOD1 131528Z 18013KT 03/M08 A301 RMK A01 T00301082  RH  044%=      5-min Rain = 0
KOD1 131529Z 18012KT 03/M08 A301 RMK A01 T00291082  RH  044%=      5-min Rain = 0
KOD1 131530Z 18012KT 03/M08 A301 RMK A01 T00301081  RH  044%=      5-min Rain = 0
KOD1 131531Z 17012KT 03/M08 A301 RMK A01 T00321079  RH  044%=      5-min Rain = 0
KOD1 131532Z 18013KT 03/M08 A301 RMK A01 T00331080  RH  043%=      5-min Rain = 0
KOD1 131533Z 18011KT 03/M08 A301 RMK A01 T00321082  RH  043%=      5-min Rain = 0
KOD1 131534Z 18013KT 03/M08 A301 RMK A01 T00341081  RH  043%=      5-min Rain = 0
KOD1 131535Z 18014KT 04/M08 A301 RMK A01 T00351082  RH  042%=      5-min Rain = 0
KOD1 131536Z 19011KT 03/M08 A301 RMK A01 T00341083  RH  042%=      5-min Rain = 0
KOD1 131537Z 18013KT 03/M08 A301 RMK A01 T00341082  RH  042%=      5-min Rain = 0
KOD1 131538Z 18013KT 04/M08 A301 RMK A01 T00361081  RH  042%=      5-min Rain = 0
KOD1 131539Z 19013KT 04/M08 A301 RMK A01 T00371083  RH  041%=      5-min Rain = 0
KOD1 131540Z 19014KT 04/M08 A301 RMK A01 T00371083  RH  041%=      5-min Rain = 0
KOD1 131541Z 18013KT 04/M08 A301 RMK A01 T00381082  RH  041%=      5-min Rain = 0
KOD1 131542Z 17014KT 04/M08 A301 RMK A01 T00391081  RH  041%=      5-min Rain = 0
KOD1 131543Z 17015KT 04/M08 A301 RMK A01 T00391082  RH  041%=      5-min Rain = 0
KOD1 131544Z 19014KT 04/M08 A301 RMK A01 T00381083  RH  041%=      5-min Rain = 0
KOD1 131545Z 19012KT 04/M08 A3009 RMK A01 T00391081  RH  041%=      5-min Rain = 0
KOD1 131546Z 19011KT 04/M08 A3009 RMK A01 T00401081  RH  041%=      5-min Rain = 0
KOD1 131547Z 18012KT 04/M08 A3009 RMK A01 T00431078  RH  041%=      5-min Rain = 0
KOD1 131548Z 19013KT 04/M08 A3009 RMK A01 T00441081  RH  040%=      5-min Rain = 0
KOD1 131549Z 19012KT 04/M08 A3009 RMK A01 T00431081  RH  040%=      5-min Rain = 0
KOD1 131550Z 19012KT 04/M08 A3009 RMK A01 T00431082  RH  040%=      5-min Rain = 0
KOD1 131551Z 18012KT 04/M08 A3009 RMK A01 T00431082  RH  040%=      5-min Rain = 0
KOD1 131552Z 18013KT 05/M08 A3009 RMK A01 T00451080  RH  040%=      5-min Rain = 0
KOD1 131553Z 17014KT 05/M08 A3009 RMK A01 T00461081  RH  039%=      5-min Rain = 0
KOD1 131554Z 18014KT 05/M08 A3009 RMK A01 T00461082  RH  039%=      5-min Rain = 0
KOD1 131555Z 18012KT 05/M08 A3009 RMK A01 T00461083  RH  039%=      5-min Rain = 0
KOD1 131556Z 18012KT 05/M08 A3009 RMK A01 T00461082  RH  039%=      5-min Rain = 0
KOD1 131557Z 19014KT 05/M08 A3009 RMK A01 T00461082  RH  039%=      5-min Rain = 0
KOD1 131558Z 20012KT 05/M08 A3009 RMK A01 T00461081  RH  039%=      5-min Rain = 0
KOD1 131559Z 19011KT 05/M08 A3009 RMK A01 T00481080  RH  039%=      5-min Rain = 0
KOD1 131600Z 19011KT 05/M08 A3009 RMK A01 T00501080  RH  039%=      5-min Rain = 0
KOD1 131601Z 18012KT 05/M08 A3009 RMK A01 T00501083  RH  038%=      5-min Rain = 0
KOD1 131602Z 18016KT 05/M08 A3009 RMK A01 T00491083  RH  038%=      5-min Rain = 0
KOD1 131603Z 19014KT 05/M08 A3009 RMK A01 T00491084  RH  037%=      5-min Rain = 0
KOD1 131604Z 19012KT 05/M08 A3009 RMK A01 T00501082  RH  038%=      5-min Rain = 0
KOD1 131605Z 19011KT 05/M08 A3009 RMK A01 T00521081  RH  038%=      5-min Rain = 0
KOD1 131606Z 18010KT 05/M08 A3009 RMK A01 T00521081  RH  038%=      5-min Rain = 0
KOD1 131607Z 19009KT 05/M08 A3009 RMK A01 T00521081  RH  038%=      5-min Rain = 0
KOD1 131608Z 18011KT 05/M08 A3009 RMK A01 T00541080  RH  038%=      5-min Rain = 0
KOD1 131609Z 17013KT 05/M08 A3008 RMK A01 T00541080  RH  037%=      5-min Rain = 0
KOD1 131610Z 18014KT 06/M08 A3008 RMK A01 T00551081  RH  037%=      5-min Rain = 0
KOD1 131611Z 19011KT 06/M08 A3008 RMK A01 T00551083  RH  036%=      5-min Rain = 0
KOD1 131612Z 18012KT 06/M08 A3008 RMK A01 T00561082  RH  036%=      5-min Rain = 0
KOD1 131613Z 17014KT 06/M08 A3008 RMK A01 T00581080  RH  036%=      5-min Rain = 0
KOD1 131614Z 18014KT 06/M08 A3008 RMK A01 T00571084  RH  035%=      5-min Rain = 0
KOD1 131615Z 18013KT 06/M08 A3008 RMK A01 T00571084  RH  035%=      5-min Rain = 0
KOD1 131616Z 18015KT 06/M08 A3008 RMK A01 T00561084  RH  036%=      5-min Rain = 0
KOD1 131617Z 18015KT 06/M09 A3008 RMK A01 T00551086  RH  035%=      5-min Rain = 0
KOD1 131618Z 18015KT 06/M09 A3008 RMK A01 T00561085  RH  035%=      5-min Rain = 0
KOD1 131619Z 18014KT 06/M08 A3008 RMK A01 T00581084  RH  035%=      5-min Rain = 0
KOD1 131620Z 18016KT 06/M09 A3008 RMK A01 T00581085  RH  035%=      5-min Rain = 0
KOD1 131621Z 19014KT 06/M09 A3008 RMK A01 T00571085  RH  035%=      5-min Rain = 0
KOD1 131622Z 18012KT 06/M08 A3008 RMK A01 T00581083  RH  036%=      5-min Rain = 0
KOD1 131623Z 18014KT 06/M09 A3008 RMK A01 T00581085  RH  035%=      5-min Rain = 0
KOD1 131624Z 18014KT 06/M08 A3008 RMK A01 T00601083  RH  035%=      5-min Rain = 0
KOD1 131625Z 18013KT 06/M08 A3008 RMK A01 T00611083  RH  035%=      5-min Rain = 0
KOD1 131626Z 19013KT 06/M08 A3008 RMK A01 T00621083  RH  035%=      5-min Rain = 0
KOD1 131627Z 19014KT 06/M08 A3008 RMK A01 T00621084  RH  034%=      5-min Rain = 0
KOD1 131628Z 19014KT 06/M09 A3008 RMK A01 T00621085  RH  034%=      5-min Rain = 0
KOD1 131629Z 18013KT 06/M08 A3008 RMK A01 T00631083  RH  034%=      5-min Rain = 0
KOD1 131630Z 18012KT 07/M08 A3007 RMK A01 T00651083  RH  034%=      5-min Rain = 0
KOD1 131631Z 18010KT 06/M08 A3007 RMK A01 T00641084  RH  034%=      5-min Rain = 0
KOD1 131632Z 17014KT 07/M08 A3007 RMK A01 T00651084  RH  034%=      5-min Rain = 0
KOD1 131633Z 17015KT 06/M09 A3007 RMK A01 T00641086  RH  033%=      5-min Rain = 0
KOD1 131634Z 17014KT 06/M09 A3007 RMK A01 T00641085  RH  034%=      5-min Rain = 0
KOD1 131635Z 18013KT 07/M08 A3007 RMK A01 T00661083  RH  034%=      5-min Rain = 0
KOD1 131636Z 18012KT 07/M08 A3007 RMK A01 T00671082  RH  034%=      5-min Rain = 0
KOD1 131637Z 17013KT 07/M08 A3007 RMK A01 T00671082  RH  034%=      5-min Rain = 0
KOD1 131638Z 17015KT 07/M08 A3007 RMK A01 T00681083  RH  033%=      5-min Rain = 0
KOD1 131639Z 17014KT 07/M08 A3007 RMK A01 T00671083  RH  033%=      5-min Rain = 0
KOD1 131640Z 17015KT 07/M08 A3007 RMK A01 T00691083  RH  033%=      5-min Rain = 0
KOD1 131641Z 18014KT 07/M08 A3007 RMK A01 T00701083  RH  033%=      5-min Rain = 0
KOD1 131642Z 17016KT 07/M08 A3007 RMK A01 T00701083  RH  033%=      5-min Rain = 0
KOD1 131643Z 17017KT 07/M09 A3007 RMK A01 T00701085  RH  032%=      5-min Rain = 0
KOD1 131644Z 18013KT 07/M08 A3007 RMK A01 T00711083  RH  032%=      5-min Rain = 0
KOD1 131645Z 18014KT 07/M09 A3007 RMK A01 T00711086  RH  032%=      5-min Rain = 0
KOD1 131646Z 19014KT 07/M08 A3007 RMK A01 T00701084  RH  032%=      5-min Rain = 0
KOD1 131647Z 20013KT 07/M08 A3007 RMK A01 T00711084  RH  032%=      5-min Rain = 0
KOD1 131648Z 19013KT 07/M08 A3007 RMK A01 T00711083  RH  032%=      5-min Rain = 0
KOD1 131649Z 18013KT 07/M08 A3007 RMK A01 T00731080  RH  033%=      5-min Rain = 0
KOD1 131650Z 18014KT 08/M08 A3007 RMK A01 T00751081  RH  032%=      5-min Rain = 0
KOD1 131651Z 19012KT 08/M08 A3007 RMK A01 T00751081  RH  032%=      5-min Rain = 0
KOD1 131652Z 18018KT 08/M08 A3007 RMK A01 T00751082  RH  032%=      5-min Rain = 0
KOD1 131653Z 17016KT 08/M08 A3007 RMK A01 T00751081  RH  032%=      5-min Rain = 0
KOD1 131654Z 17016KT 08/M08 A3007 RMK A01 T00751081  RH  032%=      5-min Rain = 0
KOD1 131655Z 18016KT 08/M08 A3007 RMK A01 T00751080  RH  032%=      5-min Rain = 0
KOD1 131656Z 19014KT 08/M08 A3007 RMK A01 T00751079  RH  032%=      5-min Rain = 0
KOD1 131657Z 18014KT 08/M08 A3007 RMK A01 T00751080  RH  032%=      5-min Rain = 0
KOD1 131658Z 18014KT 07/M08 A3007 RMK A01 T00741081  RH  032%=      5-min Rain = 0
KOD1 131659Z 17017KT 08/M08 A3007 RMK A01 T00751080  RH  032%=      5-min Rain = 0
KOD1 131700Z 17016KT 08/M08 A3006 RMK A01 T00761079  RH  032%=      5-min Rain = 0
KOD1 131701Z 18015KT 08/M08 A3006 RMK A01 T00771079  RH  032%=      5-min Rain = 0
KOD1 131702Z 18015KT 08/M08 A3006 RMK A01 T00781077  RH  032%=      5-min Rain = 0
KOD1 131703Z 18014KT 08/M08 A3006 RMK A01 T00791075  RH  033%=      5-min Rain = 0
KOD1 131704Z 19016KT 08/M08 A3006 RMK A01 T00811075  RH  032%=      5-min Rain = 0
KOD1 131705Z 19015KT 08/M08 A3007 RMK A01 T00821075  RH  032%=      5-min Rain = 0
KOD1 131706Z 18017KT 08/M07 A3006 RMK A01 T00821074  RH  032%=      5-min Rain = 0
KOD1 131707Z 17015KT 08/M07 A3006 RMK A01 T00831074  RH  032%=      5-min Rain = 0
KOD1 131708Z 19015KT 09/M07 A3006 RMK A01 T00861074  RH  031%=      5-min Rain = 0
KOD1 131709Z 19015KT 08/M07 A3006 RMK A01 T00841074  RH  032%=      5-min Rain = 0
KOD1 131710Z 19016KT 08/M07 A3006 RMK A01 T00831074  RH  032%=      5-min Rain = 0
KOD1 131711Z 19014KT 08/M07 A3006 RMK A01 T00821074  RH  032%=      5-min Rain = 0
KOD1 131712Z 18015KT 09/M07 A3006 RMK A01 T00851070  RH  033%=      5-min Rain = 0
KOD1 131713Z 17017KT 09/M07 A3006 RMK A01 T00881069  RH  032%=      5-min Rain = 0
KOD1 131714Z 18019KT 09/M07 A3006 RMK A01 T00881072  RH  032%=      5-min Rain = 0
KOD1 131715Z 19015KT 08/M07 A3006 RMK A01 T00841072  RH  032%=      5-min Rain = 0
KOD1 131716Z 19017KT 09/M07 A3006 RMK A01 T00861070  RH  032%=      5-min Rain = 0
KOD1 131717Z 19015KT 08/M07 A3006 RMK A01 T00841074  RH  032%=      5-min Rain = 0
KOD1 131718Z 19013KT 08/M07 A3006 RMK A01 T00841072  RH  032%=      5-min Rain = 0
KOD1 131719Z 19017KT 09/M07 A3006 RMK A01 T00881069  RH  032%=      5-min Rain = 0
KOD1 131720Z 19017KT 09/M07 A3006 RMK A01 T00891071  RH  032%=      5-min Rain = 0
KOD1 131721Z 20016KT 09/M07 A3006 RMK A01 T00871071  RH  032%=      5-min Rain = 0
KOD1 131722Z 19017KT 09/M07 A3006 RMK A01 T00861072  RH  032%=      5-min Rain = 0
KOD1 131723Z 18017KT 09/M07 A3006 RMK A01 T00851072  RH  032%=      5-min Rain = 0
KOD1 131724Z 18016G21KT 09/M07 A3006 RMK A01 T00861070  RH  033%=      5-min Rain = 0
KOD1 131725Z 19020KT 09/M07 A3006 RMK A01 T00881068  RH  032%=      5-min Rain = 0
KOD1 131726Z 19016KT 09/M07 A3006 RMK A01 T00871070  RH  032%=      5-min Rain = 0
KOD1 131727Z 19018KT 09/M07 A3006 RMK A01 T00891069  RH  032%=      5-min Rain = 0
KOD1 131728Z 19015KT 09/M07 A3006 RMK A01 T00891068  RH  032%=      5-min Rain = 0
KOD1 131729Z 19020KT 09/M07 A3006 RMK A01 T00881069  RH  032%=      5-min Rain = 0
KOD1 131730Z 19016KT 09/M07 A3006 RMK A01 T00881067  RH  033%=      5-min Rain = 0
KOD1 131731Z 20015KT 09/M07 A3006 RMK A01 T00891067  RH  032%=      5-min Rain = 0
KOD1 131732Z 18015KT 09/M07 A3006 RMK A01 T00911066  RH  032%=      5-min Rain = 0
KOD1 131733Z 18016KT 10/M07 A3005 RMK A01 T00951066  RH  032%=      5-min Rain = 0
KOD1 131734Z 18017KT 09/M07 A3006 RMK A01 T00941066  RH  032%=      5-min Rain = 0
KOD1 131735Z 18014KT 10/M07 A3006 RMK A01 T00951066  RH  032%=      5-min Rain = 0
KOD1 131736Z 19013KT 10/M06 A3006 RMK A01 T00951063  RH  032%=      5-min Rain = 0
KOD1 131737Z 18015G20KT 10/M06 A3005 RMK A01 T00971063  RH  032%=      5-min Rain = 0
KOD1 131738Z 19016KT 09/M07 A3005 RMK A01 T00941068  RH  031%=      5-min Rain = 0
KOD1 131739Z 18016KT 10/M07 A3005 RMK A01 T00951065  RH  032%=      5-min Rain = 0
KOD1 131740Z 19018KT 10/M07 A3005 RMK A01 T00951066  RH  031%=      5-min Rain = 0
KOD1 131741Z 18015KT 09/M07 A3005 RMK A01 T00921065  RH  032%=      5-min Rain = 0
KOD1 131742Z 18017G22KT 09/M06 A3005 RMK A01 T00941063  RH  032%=      5-min Rain = 0
KOD1 131743Z 18019KT 09/M06 A3005 RMK A01 T00941063  RH  032%=      5-min Rain = 0
KOD1 131744Z 18016G21KT 09/M06 A3004 RMK A01 T00931064  RH  032%=      5-min Rain = 0
KOD1 131745Z 17016KT 10/M06 A3004 RMK A01 T00951062  RH  033%=      5-min Rain = 0
KOD1 131746Z 18018KT 10/M06 A3004 RMK A01 T00961063  RH  032%=      5-min Rain = 0
KOD1 131747Z 19018KT 10/M06 A3004 RMK A01 T00961063  RH  032%=      5-min Rain = 0
KOD1 131748Z 19019KT 09/M06 A3004 RMK A01 T00941064  RH  032%=      5-min Rain = 0
KOD1 131749Z 19017KT 09/M07 A3004 RMK A01 T00921066  RH  032%=      5-min Rain = 0
KOD1 131750Z 19016KT 09/M06 A3003 RMK A01 T00931064  RH  032%=      5-min Rain = 0
KOD1 131751Z 18017KT 10/M06 A3003 RMK A01 T00951064  RH  032%=      5-min Rain = 0
KOD1 131752Z 17018KT 10/M07 A3003 RMK A01 T00971065  RH  031%=      5-min Rain = 0
KOD1 131753Z 18016KT 10/M06 A3003 RMK A01 T00981064  RH  031%=      5-min Rain = 0
KOD1 131754Z 18014KT 10/M06 A3003 RMK A01 T01001062  RH  031%=      5-min Rain = 0
KOD1 131755Z 19014KT 10/M06 A3003 RMK A01 T01031059  RH  032%=      5-min Rain = 0
KOD1 131756Z 18018G23KT 10/M06 A3003 RMK A01 T01041060  RH  031%=      5-min Rain = 0
KOD1 131757Z 19020G25KT 10/M06 A3003 RMK A01 T01011063  RH  031%=      5-min Rain = 0
KOD1 131758Z 18019KT 10/M06 A3003 RMK A01 T01001061  RH  032%=      5-min Rain = 0
KOD1 131759Z 18021KT 10/M06 A3003 RMK A01 T00991062  RH  032%=      5-min Rain = 0
KOD1 131800Z 18021KT 10/M06 A3003 RMK A01 T00961063  RH  032%=      5-min Rain = 0
KOD1 131801Z 19017KT 10/M06 A3003 RMK A01 T00961061  RH  032%=      5-min Rain = 0
KOD1 131802Z 18018KT 10/M06 A3003 RMK A01 T00971061  RH  032%=      5-min Rain = 0
KOD1 131803Z 18015KT 10/M06 A3003 RMK A01 T00961062  RH  032%=      5-min Rain = 0
KOD1 131804Z 17019KT 10/M06 A3003 RMK A01 T00991060  RH  032%=      5-min Rain = 0
KOD1 131805Z 19016KT 10/M06 A3003 RMK A01 T00991063  RH  032%=      5-min Rain = 0
KOD1 131806Z 18015KT 10/M06 A3003 RMK A01 T00991061  RH  032%=      5-min Rain = 0
KOD1 131807Z 18018KT 10/M06 A3003 RMK A01 T01011061  RH  031%=      5-min Rain = 0
KOD1 131808Z 18016KT 10/M06 A3003 RMK A01 T00991063  RH  031%=      5-min Rain = 0
KOD1 131809Z 19016KT 10/M06 A3003 RMK A01 T00991061  RH  032%=      5-min Rain = 0
KOD1 131810Z 18018KT 10/M06 A3003 RMK A01 T01011059  RH  032%=      5-min Rain = 0
KOD1 131811Z 19017KT 10/M06 A3003 RMK A01 T01011058  RH  032%=      5-min Rain = 0
KOD1 131812Z 20020KT 10/M06 A3002 RMK A01 T01011059  RH  032%=      5-min Rain = 0
KOD1 131813Z 19019KT 10/M06 A3002 RMK A01 T00991059  RH  032%=      5-min Rain = 0
KOD1 131814Z 20016KT 10/M06 A3002 RMK A01 T01001058  RH  032%=      5-min Rain = 0
KOD1 131815Z 17018KT 10/M06 A3002 RMK A01 T01011058  RH  032%=      5-min Rain = 0
KOD1 131816Z 17017KT 10/M06 A3002 RMK A01 T01031059  RH  032%=      5-min Rain = 0
KOD1 131817Z 17015KT 10/M06 A3002 RMK A01 T01031061  RH  031%=      5-min Rain = 0
KOD1 131818Z 17016G23KT 10/M06 A3002 RMK A01 T01041058  RH  032%=      5-min Rain = 0
KOD1 131819Z 18019KT 10/M06 A3002 RMK A01 T01041060  RH  031%=      5-min Rain = 0
KOD1 131820Z 19018G23KT 10/M06 A3002 RMK A01 T01031059  RH  032%=      5-min Rain = 0
KOD1 131821Z 18020KT 10/M06 A3002 RMK A01 T01041057  RH  032%=      5-min Rain = 0
KOD1 131822Z 18017KT 10/M06 A3002 RMK A01 T01041058  RH  031%=      5-min Rain = 0
KOD1 131823Z 18018G24KT 10/M06 A3002 RMK A01 T01041058  RH  032%=      5-min Rain = 0
KOD1 131824Z 17019KT 11/M06 A3002 RMK A01 T01051058  RH  031%=      5-min Rain = 0
KOD1 131825Z 17017KT 10/M06 A3001 RMK A01 T01041056  RH  032%=      5-min Rain = 0
KOD1 131826Z 17016KT 11/M06 A3001 RMK A01 T01061056  RH  032%=      5-min Rain = 0
KOD1 131827Z 16018KT 11/M06 A3001 RMK A01 T01061057  RH  031%=      5-min Rain = 0
KOD1 131828Z 18015KT 11/M06 A3001 RMK A01 T01081056  RH  031%=      5-min Rain = 0
KOD1 131829Z 19017KT 11/M06 A3001 RMK A01 T01101055  RH  031%=      5-min Rain = 0
KOD1 131830Z 19018KT 11/M06 A3001 RMK A01 T01071058  RH  031%=      5-min Rain = 0
KOD1 131831Z 19015KT 11/M06 A3001 RMK A01 T01051058  RH  031%=      5-min Rain = 0
KOD1 131832Z 18015KT 11/M06 A3001 RMK A01 T01061058  RH  031%=      5-min Rain = 0
KOD1 131833Z 19016KT 11/M06 A3001 RMK A01 T01081055  RH  031%=      5-min Rain = 0
KOD1 131834Z 19015KT 11/M06 A3001 RMK A01 T01111055  RH  031%=      5-min Rain = 0
KOD1 131835Z 19016KT 11/M06 A30 RMK A01 T01131055  RH  030%=      5-min Rain = 0
KOD1 131836Z 19016KT 11/M06 A30 RMK A01 T01111058  RH  030%=      5-min Rain = 0
KOD1 131837Z 18017KT 11/M05 A30 RMK A01 T01121053  RH  031%=      5-min Rain = 0
KOD1 131838Z 17016KT 11/M06 A30 RMK A01 T01141056  RH  030%=      5-min Rain = 0
KOD1 131839Z 18017G23KT 11/M06 A30 RMK A01 T01131055  RH  030%=      5-min Rain = 0
KOD1 131840Z 18018KT 12/M06 A30 RMK A01 T01151055  RH  030%=      5-min Rain = 0
KOD1 131841Z 18015KT 11/M06 A30 RMK A01 T01121057  RH  030%=      5-min Rain = 0
KOD1 131842Z 17014KT 11/M06 A30 RMK A01 T01121057  RH  030%=      5-min Rain = 0
KOD1 131843Z 17018G23KT 11/M05 A30 RMK A01 T01121053  RH  031%=      5-min Rain = 0
KOD1 131844Z 18018KT 11/M05 A30 RMK A01 T01141049  RH  032%=      5-min Rain = 0
KOD1 131845Z 18016KT 11/M05 A30 RMK A01 T01141049  RH  031%=      5-min Rain = 0
KOD1 131846Z 20017G22KT 12/M05 A30 RMK A01 T01161049  RH  031%=      5-min Rain = 0
KOD1 131847Z 20016KT 11/M05 A30 RMK A01 T01131051  RH  031%=      5-min Rain = 0
KOD1 131848Z 19016KT 11/M05 A2999 RMK A01 T01111051  RH  032%=      5-min Rain = 0
KOD1 131849Z 19017KT 11/M05 A2999 RMK A01 T01121050  RH  032%=      5-min Rain = 0
KOD1 131850Z 19019KT 11/M05 A2999 RMK A01 T01121052  RH  031%=      5-min Rain = 0
KOD1 131851Z 18015KT 11/M05 A2999 RMK A01 T01121053  RH  031%=      5-min Rain = 0
KOD1 131852Z 18017KT 11/M05 A2999 RMK A01 T01131051  RH  031%=      5-min Rain = 0
KOD1 131853Z 17016KT 12/M05 A2999 RMK A01 T01151052  RH  031%=      5-min Rain = 0
KOD1 131854Z 17019KT 12/M05 A2999 RMK A01 T01161052  RH  031%=      5-min Rain = 0
KOD1 131855Z 18019KT 12/M05 A2999 RMK A01 T01151052  RH  031%=      5-min Rain = 0
KOD1 131856Z 17017KT 12/M05 A2999 RMK A01 T01151049  RH  031%=      5-min Rain = 0
KOD1 131857Z 16018KT 12/M05 A2998 RMK A01 T01171047  RH  031%=      5-min Rain = 0
KOD1 131858Z 17017KT 12/M05 A2998 RMK A01 T01181048  RH  031%=      5-min Rain = 0
KOD1 131859Z 17017KT 12/M05 A2998 RMK A01 T01191046  RH  031%=      5-min Rain = 0
KOD1 131900Z 18018KT 12/M05 A2998 RMK A01 T01201046  RH  031%=      5-min Rain = 0
KOD1 131901Z 19019KT 12/M05 A2998 RMK A01 T01171048  RH  031%=      5-min Rain = 0
KOD1 131902Z 19019KT 11/M05 A2998 RMK A01 T01141047  RH  032%=      5-min Rain = 0
KOD1 131903Z 18018KT 12/M05 A2997 RMK A01 T01151045  RH  032%=      5-min Rain = 0
KOD1 131904Z 19018G24KT 12/M04 A2997 RMK A01 T01161043  RH  032%=      5-min Rain = 0
KOD1 131905Z 19021KT 12/M05 A2997 RMK A01 T01171045  RH  032%=      5-min Rain = 0
KOD1 131906Z 19018KT 11/M05 A2997 RMK A01 T01141046  RH  032%=      5-min Rain = 0
KOD1 131907Z 18015KT 12/M04 A2997 RMK A01 T01151044  RH  032%=      5-min Rain = 0
KOD1 131908Z 17021G26KT 12/M04 A2997 RMK A01 T01191044  RH  032%=      5-min Rain = 0
KOD1 131909Z 17021KT 12/M04 A2997 RMK A01 T01191044  RH  032%=      5-min Rain = 0
KOD1 131910Z 18019KT 12/M04 A2997 RMK A01 T01161044  RH  032%=      5-min Rain = 0
KOD1 131911Z 17021KT 12/M04 A2997 RMK A01 T01161044  RH  032%=      5-min Rain = 0
KOD1 131912Z 18017KT 12/M05 A2997 RMK A01 T01161046  RH  032%=      5-min Rain = 0
KOD1 131913Z 18019KT 12/M04 A2997 RMK A01 T01161044  RH  032%=      5-min Rain = 0
KOD1 131914Z 17021KT 12/M04 A2997 RMK A01 T01181043  RH  032%=      5-min Rain = 0
KOD1 131915Z 18019KT 12/M04 A2997 RMK A01 T01171043  RH  032%=      5-min Rain = 0
KOD1 131916Z 18019KT 12/M04 A2997 RMK A01 T01161043  RH  032%=      5-min Rain = 0
KOD1 131917Z 17019KT 12/M04 A2996 RMK A01 T01171040  RH  033%=      5-min Rain = 0
KOD1 131918Z 17018KT 12/M04 A2996 RMK A01 T01181042  RH  032%=      5-min Rain = 0
KOD1 131919Z 17016KT 12/M04 A2996 RMK A01 T01181043  RH  032%=      5-min Rain = 0
KOD1 131920Z 17018KT 12/M04 A2996 RMK A01 T01191044  RH  032%=      5-min Rain = 0
KOD1 131921Z 18021KT 12/M04 A2996 RMK A01 T01201042  RH  032%=      5-min Rain = 0
KOD1 131922Z 18021KT 12/M04 A2996 RMK A01 T01181042  RH  032%=      5-min Rain = 0
KOD1 131923Z 19018KT 12/M04 A2996 RMK A01 T01161042  RH  033%=      5-min Rain = 0
KOD1 131924Z 19019KT 12/M04 A2996 RMK A01 T01161042  RH  033%=      5-min Rain = 0
KOD1 131925Z 19015G21KT 12/M04 A2996 RMK A01 T01161042  RH  033%=      5-min Rain = 0
KOD1 131926Z 18015KT 12/M04 A2996 RMK A01 T01201041  RH  032%=      5-min Rain = 0
KOD1 131927Z 18016G21KT 12/M04 A2996 RMK A01 T01211042  RH  032%=      5-min Rain = 0
KOD1 131928Z 18018KT 12/M04 A2996 RMK A01 T01221044  RH  031%=      5-min Rain = 0
KOD1 131929Z 19016KT 12/M05 A2996 RMK A01 T01201046  RH  031%=      5-min Rain = 0
KOD1 131930Z 18015KT 12/M05 A2996 RMK A01 T01181045  RH  032%=      5-min Rain = 0
KOD1 131931Z 17015KT 12/M04 A2996 RMK A01 T01231042  RH  031%=      5-min Rain = 0
KOD1 131932Z 17016KT 12/M05 A2996 RMK A01 T01231046  RH  030%=      5-min Rain = 0
KOD1 131933Z 17016KT 12/M05 A2996 RMK A01 T01221045  RH  031%=      5-min Rain = 0
KOD1 131934Z 18017KT 12/M04 A2996 RMK A01 T01231042  RH  031%=      5-min Rain = 0
KOD1 131935Z 17014KT 12/M04 A2996 RMK A01 T01231041  RH  032%=      5-min Rain = 0
KOD1 131936Z 18013KT 12/M04 A2996 RMK A01 T01231040  RH  032%=      5-min Rain = 0
KOD1 131937Z 17014G20KT 12/M04 A2996 RMK A01 T01231041  RH  032%=      5-min Rain = 0
KOD1 131938Z 18018KT 12/M04 A2996 RMK A01 T01231041  RH  032%=      5-min Rain = 0
KOD1 131939Z 18018KT 12/M04 A2995 RMK A01 T01211043  RH  032%=      5-min Rain = 0
KOD1 131940Z 18017KT 12/M04 A2995 RMK A01 T01211041  RH  032%=      5-min Rain = 0
KOD1 131941Z 17015KT 12/M04 A2995 RMK A01 T01221039  RH  032%=      5-min Rain = 0
KOD1 131942Z 18019KT 12/M04 A2996 RMK A01 T01231039  RH  032%=      5-min Rain = 0
KOD1 131943Z 19016G21KT 12/M04 A2996 RMK A01 T01221040  RH  032%=      5-min Rain = 0
KOD1 131944Z 19018KT 12/M04 A2995 RMK A01 T01211039  RH  033%=      5-min Rain = 0
KOD1 131945Z 18018KT 12/M04 A2995 RMK A01 T01201041  RH  032%=      5-min Rain = 0
KOD1 131946Z 17018KT 12/M04 A2995 RMK A01 T01191042  RH  032%=      5-min Rain = 0
KOD1 131947Z 16015KT 12/M04 A2995 RMK A01 T01191042  RH  032%=      5-min Rain = 0
KOD1 131948Z 17016KT 12/M04 A2995 RMK A01 T01201042  RH  032%=      5-min Rain = 0
KOD1 131949Z 18015KT 12/M04 A2995 RMK A01 T01221042  RH  032%=      5-min Rain = 0
KOD1 131950Z 16013KT 12/M04 A2995 RMK A01 T01241041  RH  031%=      5-min Rain = 0
KOD1 131951Z 17017KT 13/M04 A2995 RMK A01 T01271040  RH  031%=      5-min Rain = 0
KOD1 131952Z 18016KT 13/M04 A2995 RMK A01 T01251040  RH  031%=      5-min Rain = 0
KOD1 131953Z 18013KT 12/M04 A2995 RMK A01 T01231039  RH  032%=      5-min Rain = 0
KOD1 131954Z 18016KT 12/M04 A2995 RMK A01 T01221038  RH  033%=      5-min Rain = 0
KOD1 131955Z 18016KT 12/M04 A2995 RMK A01 T01221038  RH  032%=      5-min Rain = 0
KOD1 131956Z 17015KT 12/M04 A2995 RMK A01 T01231040  RH  032%=      5-min Rain = 0
KOD1 131957Z 17015KT 12/M04 A2995 RMK A01 T01221043  RH  031%=      5-min Rain = 0
KOD1 131958Z 16015KT 12/M04 A2995 RMK A01 T01201043  RH  032%=      5-min Rain = 0
KOD1 131959Z 17014KT 12/M04 A2995 RMK A01 T01211042  RH  032%=      5-min Rain = 0
KOD1 132000Z 18016KT 12/M04 A2995 RMK A01 T01221041  RH  032%=      5-min Rain = 0
KOD1 132001Z 18014KT 12/M04 A2995 RMK A01 T01211042  RH  032%=      5-min Rain = 0
KOD1 132002Z 17013KT 12/M04 A2995 RMK A01 T01201040  RH  032%=      5-min Rain = 0
KOD1 132003Z 17013KT 12/M04 A2995 RMK A01 T01211043  RH  031%=      5-min Rain = 0
KOD1 132004Z 19012KT 12/M04 A2995 RMK A01 T01221040  RH  032%=      5-min Rain = 0
KOD1 132005Z 18017KT 13/M04 A2995 RMK A01 T01251039  RH  032%=      5-min Rain = 0
KOD1 132006Z 18018KT 12/M04 A2995 RMK A01 T01221041  RH  032%=      5-min Rain = 0
KOD1 132007Z 18014KT 12/M04 A2995 RMK A01 T01221039  RH  032%=      5-min Rain = 0
KOD1 132008Z 19014KT 12/M04 A2995 RMK A01 T01231038  RH  032%=      5-min Rain = 0
KOD1 132009Z 19014KT 12/M04 A2994 RMK A01 T01231038  RH  032%=      5-min Rain = 0
KOD1 132010Z 17012KT 12/M04 A2995 RMK A01 T01221037  RH  033%=      5-min Rain = 0
KOD1 132011Z 17014KT 13/M04 A2994 RMK A01 T01261035  RH  032%=      5-min Rain = 0
KOD1 132012Z 18016KT 13/M04 A2994 RMK A01 T01261039  RH  031%=      5-min Rain = 0
KOD1 132013Z 18015KT 12/M04 A2994 RMK A01 T01221040  RH  032%=      5-min Rain = 0
KOD1 132014Z 17014KT 12/M04 A2994 RMK A01 T01231037  RH  032%=      5-min Rain = 0
KOD1 132015Z 17014KT 13/M04 A2994 RMK A01 T01251037  RH  032%=      5-min Rain = 0
KOD1 132016Z 18013KT 13/M04 A2994 RMK A01 T01261036  RH  032%=      5-min Rain = 0
KOD1 132017Z 18013KT 13/M04 A2994 RMK A01 T01251039  RH  032%=      5-min Rain = 0
KOD1 132018Z 17013KT 12/M04 A2994 RMK A01 T01231038  RH  032%=      5-min Rain = 0
KOD1 132019Z 18018KT 12/M04 A2994 RMK A01 T01241036  RH  032%=      5-min Rain = 0
KOD1 132020Z 19015KT 12/M04 A2994 RMK A01 T01241037  RH  032%=      5-min Rain = 0
KOD1 132021Z 17015KT 12/M04 A2994 RMK A01 T01231037  RH  033%=      5-min Rain = 0
KOD1 132022Z 17017KT 12/M03 A2994 RMK A01 T01241034  RH  033%=      5-min Rain = 0
KOD1 132023Z 18014KT 13/M03 A2994 RMK A01 T01261034  RH  033%=      5-min Rain = 0
KOD1 132024Z 18014KT 13/M04 A2994 RMK A01 T01261035  RH  033%=      5-min Rain = 0
KOD1 132025Z 18014KT 13/M03 A2994 RMK A01 T01271034  RH  032%=      5-min Rain = 0
KOD1 132026Z 17015KT 13/M04 A2994 RMK A01 T01271035  RH  032%=      5-min Rain = 0
KOD1 132027Z 16013KT 13/M04 A2994 RMK A01 T01251036  RH  032%=      5-min Rain = 0
KOD1 132028Z 17014KT 13/M03 A2994 RMK A01 T01261034  RH  033%=      5-min Rain = 0
KOD1 132029Z 18013KT 13/M03 A2994 RMK A01 T01271034  RH  032%=      5-min Rain = 0
KOD1 132030Z 19011KT 13/M03 A2994 RMK A01 T01301032  RH  032%=      5-min Rain = 0
KOD1 132031Z 17014KT 13/M03 A2994 RMK A01 T01321032  RH  032%=      5-min Rain = 0
KOD1 132032Z 17015KT 13/M04 A2994 RMK A01 T01281036  RH  032%=      5-min Rain = 0
KOD1 132033Z 18013KT 13/M04 A2994 RMK A01 T01261036  RH  032%=      5-min Rain = 0
KOD1 132034Z 19013KT 13/M03 A2994 RMK A01 T01271034  RH  032%=      5-min Rain = 0
KOD1 132035Z 20014KT 13/M03 A2994 RMK A01 T01271033  RH  033%=      5-min Rain = 0
KOD1 132036Z 20015KT 13/M03 A2994 RMK A01 T01271034  RH  032%=      5-min Rain = 0
KOD1 132037Z 18013G18KT 13/M04 A2994 RMK A01 T01271035  RH  032%=      5-min Rain = 0
KOD1 132038Z 18011KT 13/M03 A2994 RMK A01 T01301033  RH  032%=      5-min Rain = 0
KOD1 132039Z 19013KT 13/M03 A2994 RMK A01 T01311032  RH  032%=      5-min Rain = 0
KOD1 132040Z 20014KT 13/M03 A2994 RMK A01 T01311032  RH  032%=      5-min Rain = 0
KOD1 132041Z 20013KT 13/M03 A2994 RMK A01 T01291033  RH  032%=      5-min Rain = 0
KOD1 132042Z 19013KT 13/M03 A2994 RMK A01 T01281032  RH  033%=      5-min Rain = 0
KOD1 132043Z 18016KT 13/M03 A2994 RMK A01 T01291031  RH  033%=      5-min Rain = 0
KOD1 132044Z 18015KT 13/M03 A2994 RMK A01 T01291032  RH  033%=      5-min Rain = 0
KOD1 132045Z 19015KT 13/M03 A2995 RMK A01 T01291033  RH  032%=      5-min Rain = 0
KOD1 132046Z 19013KT 13/M03 A2995 RMK A01 T01281034  RH  032%=      5-min Rain = 0
KOD1 132047Z 19012KT 13/M04 A2995 RMK A01 T01271035  RH  032%=      5-min Rain = 0
KOD1 132048Z 18012KT 13/M03 A2995 RMK A01 T01271034  RH  033%=      5-min Rain = 0
KOD1 132049Z 18012G19KT 13/M03 A2995 RMK A01 T01291032  RH  033%=      5-min Rain = 0
KOD1 132050Z 19013KT 13/M03 A2995 RMK A01 T01291032  RH  032%=      5-min Rain = 0
KOD1 132051Z 20011KT 13/M03 A2995 RMK A01 T01291031  RH  033%=      5-min Rain = 0
KOD1 132052Z 20011KT 13/M03 A2995 RMK A01 T01291030  RH  033%=      5-min Rain = 0
KOD1 132053Z 19011KT 13/M03 A2995 RMK A01 T01301028  RH  033%=      5-min Rain = 0
KOD1 132054Z 18012KT 13/M03 A2995 RMK A01 T01321030  RH  032%=      5-min Rain = 0
KOD1 132055Z 18010KT 13/M03 A2995 RMK A01 T01311031  RH  032%=      5-min Rain = 0
KOD1 132056Z 19013KT 13/M03 A2995 RMK A01 T01311032  RH  032%=      5-min Rain = 0
KOD1 132057Z 18012KT 13/M03 A2995 RMK A01 T01291030  RH  033%=      5-min Rain = 0
KOD1 132058Z 19012KT 13/M03 A2995 RMK A01 T01301030  RH  033%=      5-min Rain = 0
KOD1 132059Z 19013KT 13/M03 A2995 RMK A01 T01311029  RH  033%=      5-min Rain = 0
KOD1 132100Z 18015KT 13/M03 A2995 RMK A01 T01311028  RH  033%=      5-min Rain = 0
KOD1 132101Z 17014KT 13/M03 A2995 RMK A01 T01311029  RH  033%=      5-min Rain = 0
KOD1 132102Z 17015KT 13/M03 A2995 RMK A01 T01311029  RH  033%=      5-min Rain = 0
KOD1 132103Z 17014KT 13/M03 A2995 RMK A01 T01301030  RH  033%=      5-min Rain = 0
KOD1 132104Z 17015KT 13/M03 A2995 RMK A01 T01301029  RH  033%=      5-min Rain = 0
KOD1 132105Z 16014KT 13/M03 A2995 RMK A01 T01311030  RH  033%=      5-min Rain = 0
KOD1 132106Z 17012KT 13/M03 A2995 RMK A01 T01301030  RH  033%=      5-min Rain = 0
KOD1 132107Z 17013KT 13/M03 A2995 RMK A01 T01301029  RH  033%=      5-min Rain = 0
KOD1 132108Z 18014KT 13/M03 A2995 RMK A01 T01321026  RH  033%=      5-min Rain = 0
KOD1 132109Z 19014KT 13/M03 A2995 RMK A01 T01331027  RH  033%=      5-min Rain = 0
KOD1 132110Z 20015KT 13/M03 A2995 RMK A01 T01321028  RH  033%=      5-min Rain = 0
KOD1 132111Z 20014KT 13/M03 A2995 RMK A01 T01311028  RH  033%=      5-min Rain = 0
KOD1 132112Z 19012KT 13/M03 A2995 RMK A01 T01301028  RH  033%=      5-min Rain = 0
KOD1 132113Z 18012KT 13/M03 A2995 RMK A01 T01311026  RH  033%=      5-min Rain = 0
KOD1 132114Z 17013KT 13/M03 A2995 RMK A01 T01331026  RH  033%=      5-min Rain = 0
KOD1 132115Z 17012KT 13/M03 A2995 RMK A01 T01321028  RH  033%=      5-min Rain = 0
KOD1 132116Z 16014KT 13/M03 A2995 RMK A01 T01321027  RH  033%=      5-min Rain = 0
KOD1 132117Z 18016KT 13/M03 A2995 RMK A01 T01331025  RH  033%=      5-min Rain = 0
KOD1 132118Z 18015KT 13/M03 A2995 RMK A01 T01331026  RH  033%=      5-min Rain = 0
KOD1 132119Z 17016KT 13/M03 A2995 RMK A01 T01341026  RH  033%=      5-min Rain = 0
KOD1 132120Z 16016KT 13/M03 A2995 RMK A01 T01321028  RH  033%=      5-min Rain = 0
KOD1 132121Z 16013KT 13/M03 A2995 RMK A01 T01311027  RH  033%=      5-min Rain = 0
KOD1 132122Z 17011KT 13/M03 A2995 RMK A01 T01331025  RH  033%=      5-min Rain = 0
KOD1 132123Z 17011KT 13/M03 A2995 RMK A01 T01341026  RH  033%=      5-min Rain = 0
KOD1 132124Z 17011KT 14/M02 A2995 RMK A01 T01351024  RH  033%=      5-min Rain = 0
KOD1 132125Z 18013KT 14/M02 A2995 RMK A01 T01371023  RH  033%=      5-min Rain = 0
KOD1 132126Z 18013KT 14/M03 A2995 RMK A01 T01361025  RH  033%=      5-min Rain = 0
KOD1 132127Z 19012KT 13/M03 A2995 RMK A01 T01341025  RH  033%=      5-min Rain = 0
KOD1 132128Z 19013KT 13/M03 A2995 RMK A01 T01331025  RH  033%=      5-min Rain = 0
KOD1 132129Z 17011KT 13/M03 A2995 RMK A01 T01331026  RH  033%=      5-min Rain = 0
KOD1 132130Z 18011KT 13/M03 A2995 RMK A01 T01331025  RH  033%=      5-min Rain = 0
KOD1 132131Z 18011KT 14/M02 A2995 RMK A01 T01351023  RH  033%=      5-min Rain = 0
KOD1 132132Z 18011KT 14/M03 A2995 RMK A01 T01361025  RH  033%=      5-min Rain = 0
KOD1 132133Z 18013KT 13/M03 A2996 RMK A01 T01341026  RH  033%=      5-min Rain = 0
KOD1 132134Z 19012KT 13/M03 A2996 RMK A01 T01321027  RH  033%=      5-min Rain = 0
KOD1 132135Z 18007KT 13/M03 A2996 RMK A01 T01321025  RH  033%=      5-min Rain = 0
KOD1 132136Z 20007KT 13/M02 A2996 RMK A01 T01341024  RH  033%=      5-min Rain = 0
KOD1 132137Z 20006KT 13/M03 A2996 RMK A01 T01341026  RH  033%=      5-min Rain = 0
KOD1 132138Z 18007KT 13/M03 A2996 RMK A01 T01321027  RH  033%=      5-min Rain = 0
KOD1 132139Z 18008KT 13/M03 A2996 RMK A01 T01331026  RH  033%=      5-min Rain = 0
KOD1 132140Z 19008KT 13/M03 A2996 RMK A01 T01321029  RH  033%=      5-min Rain = 0
KOD1 132141Z 19010KT 13/M03 A2996 RMK A01 T01311027  RH  033%=      5-min Rain = 0
KOD1 132142Z 18011KT 13/M03 A2996 RMK A01 T01311027  RH  033%=      5-min Rain = 0
KOD1 132143Z 19009KT 13/M03 A2996 RMK A01 T01311027  RH  033%=      5-min Rain = 0
KOD1 132144Z 19009KT 13/M03 A2996 RMK A01 T01321026  RH  033%=      5-min Rain = 0
KOD1 132145Z 19011KT 13/M03 A2996 RMK A01 T01321026  RH  033%=      5-min Rain = 0
KOD1 132146Z 18016KT 13/M03 A2996 RMK A01 T01321025  RH  033%=      5-min Rain = 0
KOD1 132147Z 18016KT 13/M03 A2995 RMK A01 T01311026  RH  034%=      5-min Rain = 0
KOD1 132148Z 18013KT 13/M03 A2995 RMK A01 T01301026  RH  034%=      5-min Rain = 0
KOD1 132149Z 19014KT 13/M03 A2995 RMK A01 T01311025  RH  034%=      5-min Rain = 0
KOD1 132150Z 17014KT 13/M03 A2995 RMK A01 T01301026  RH  034%=      5-min Rain = 0
KOD1 132151Z 17014KT 13/M03 A2995 RMK A01 T01311026  RH  034%=      5-min Rain = 0
KOD1 132152Z 17014KT 13/M03 A2995 RMK A01 T01311027  RH  033%=      5-min Rain = 0
KOD1 132153Z 17010KT 13/M03 A2995 RMK A01 T01311025  RH  034%=      5-min Rain = 0
KOD1 132154Z 17012KT 13/M03 A2995 RMK A01 T01331025  RH  034%=      5-min Rain = 0
KOD1 132155Z 18013KT 13/M03 A2995 RMK A01 T01321025  RH  034%=      5-min Rain = 0
KOD1 132156Z 17013KT 13/M02 A2995 RMK A01 T01321024  RH  034%=      5-min Rain = 0
KOD1 132157Z 18013KT 13/M03 A2996 RMK A01 T01311025  RH  034%=      5-min Rain = 0
KOD1 132158Z 19013KT 13/M03 A2996 RMK A01 T01301025  RH  034%=      5-min Rain = 0
KOD1 132159Z 21012KT 13/M03 A2996 RMK A01 T01291025  RH  034%=      5-min Rain = 0
KOD1 132200Z 18012KT 13/M02 A2996 RMK A01 T01301024  RH  034%=      5-min Rain = 0
KOD1 132201Z 18013KT 13/M02 A2996 RMK A01 T01301023  RH  034%=      5-min Rain = 0
KOD1 132202Z 18011KT 13/M03 A2996 RMK A01 T01291025  RH  034%=      5-min Rain = 0
KOD1 132203Z 17010KT 13/M02 A2996 RMK A01 T01291024  RH  034%=      5-min Rain = 0
KOD1 132204Z 18010KT 13/M02 A2996 RMK A01 T01291023  RH  035%=      5-min Rain = 0
KOD1 132205Z 20010KT 13/M02 A2996 RMK A01 T01301023  RH  035%=      5-min Rain = 0
KOD1 132206Z 19012KT 13/M02 A2996 RMK A01 T01311022  RH  035%=      5-min Rain = 0
KOD1 132207Z 19012KT 13/M02 A2996 RMK A01 T01311022  RH  034%=      5-min Rain = 0
KOD1 132208Z 19013KT 13/M02 A2996 RMK A01 T01301022  RH  035%=      5-min Rain = 0
KOD1 132209Z 19011KT 13/M02 A2996 RMK A01 T01301022  RH  035%=      5-min Rain = 0
KOD1 132210Z 19010KT 13/M02 A2996 RMK A01 T01301022  RH  035%=      5-min Rain = 0
KOD1 132211Z 19010KT 13/M02 A2997 RMK A01 T01301022  RH  035%=      5-min Rain = 0
KOD1 132212Z 18011KT 13/M02 A2997 RMK A01 T01301022  RH  035%=      5-min Rain = 0
KOD1 132213Z 18010KT 13/M02 A2997 RMK A01 T01301022  RH  035%=      5-min Rain = 0
KOD1 132214Z 19009KT 13/M02 A2997 RMK A01 T01301023  RH  035%=      5-min Rain = 0
KOD1 132215Z 19009KT 13/M02 A2997 RMK A01 T01301022  RH  035%=      5-min Rain = 0
KOD1 132216Z 19009KT 13/M02 A2997 RMK A01 T01311020  RH  035%=      5-min Rain = 0
KOD1 132217Z 19011KT 13/M02 A2997 RMK A01 T01311021  RH  035%=      5-min Rain = 0
KOD1 132218Z 20010KT 13/M02 A2997 RMK A01 T01301022  RH  035%=      5-min Rain = 0
KOD1 132219Z 19009KT 13/M02 A2997 RMK A01 T01301021  RH  035%=      5-min Rain = 0
KOD1 132220Z 19010KT 13/M02 A2997 RMK A01 T01301021  RH  035%=      5-min Rain = 0
KOD1 132221Z 19008KT 13/M02 A2997 RMK A01 T01301020  RH  035%=      5-min Rain = 0
KOD1 132222Z 19009KT 13/M02 A2998 RMK A01 T01301019  RH  036%=      5-min Rain = 0
KOD1 132223Z 18010KT 13/M02 A2998 RMK A01 T01301019  RH  035%=      5-min Rain = 0
KOD1 132224Z 18009KT 13/M02 A2998 RMK A01 T01301019  RH  036%=      5-min Rain = 0
KOD1 132225Z 19009KT 13/M02 A2998 RMK A01 T01311018  RH  036%=      5-min Rain = 0
KOD1 132226Z 19010KT 13/M02 A2997 RMK A01 T01301019  RH  035%=      5-min Rain = 0
KOD1 132227Z 19011KT 13/M02 A2997 RMK A01 T01301019  RH  036%=      5-min Rain = 0
KOD1 132228Z 20011KT 13/M02 A2997 RMK A01 T01301020  RH  035%=      5-min Rain = 0
KOD1 132229Z 20011KT 13/M02 A2997 RMK A01 T01301018  RH  036%=      5-min Rain = 0
KOD1 132230Z 20010KT 13/M02 A2997 RMK A01 T01301018  RH  036%=      5-min Rain = 0
KOD1 132231Z 19008KT 13/M02 A2997 RMK A01 T01301019  RH  036%=      5-min Rain = 0
KOD1 132232Z 18008KT 13/M02 A2997 RMK A01 T01301019  RH  036%=      5-min Rain = 0
KOD1 132233Z 16008KT 13/M02 A2997 RMK A01 T01301018  RH  036%=      5-min Rain = 0
KOD1 132234Z 16009KT 13/M02 A2997 RMK A01 T01301017  RH  036%=      5-min Rain = 0
KOD1 132235Z 16010KT 13/M02 A2997 RMK A01 T01301018  RH  036%=      5-min Rain = 0
KOD1 132236Z 17010KT 13/M02 A2997 RMK A01 T01301017  RH  036%=      5-min Rain = 0
KOD1 132237Z 18010KT 13/M02 A2997 RMK A01 T01291018  RH  036%=      5-min Rain = 0
KOD1 132238Z 18011KT 13/M02 A2998 RMK A01 T01291018  RH  036%=      5-min Rain = 0
KOD1 132239Z 17011KT 13/M02 A2998 RMK A01 T01281018  RH  036%=      5-min Rain = 0
KOD1 132240Z 19010KT 13/M02 A2998 RMK A01 T01271018  RH  036%=      5-min Rain = 0
KOD1 132241Z 19009KT 13/M02 A2997 RMK A01 T01271019  RH  036%=      5-min Rain = 0
KOD1 132242Z 18009KT 13/M02 A2997 RMK A01 T01271018  RH  037%=      5-min Rain = 0
KOD1 132243Z 17010KT 13/M02 A2997 RMK A01 T01271017  RH  037%=      5-min Rain = 0
KOD1 132244Z 18011KT 13/M02 A2997 RMK A01 T01261017  RH  037%=      5-min Rain = 0
KOD1 132245Z 17010KT 13/M02 A2997 RMK A01 T01261017  RH  037%=      5-min Rain = 0
KOD1 132246Z 18010KT 13/M02 A2998 RMK A01 T01251018  RH  037%=      5-min Rain = 0
KOD1 132247Z 18009KT 13/M02 A2998 RMK A01 T01251017  RH  037%=      5-min Rain = 0
KOD1 132248Z 17009KT 13/M02 A2998 RMK A01 T01251017  RH  037%=      5-min Rain = 0
KOD1 132249Z 18009KT 12/M02 A2998 RMK A01 T01241017  RH  037%=      5-min Rain = 0
KOD1 132250Z 17008KT 12/M02 A2998 RMK A01 T01241018  RH  037%=      5-min Rain = 0
KOD1 132251Z 17009KT 12/M02 A2998 RMK A01 T01241017  RH  038%=      5-min Rain = 0
KOD1 132252Z 16008KT 12/M02 A2998 RMK A01 T01231018  RH  037%=      5-min Rain = 0
KOD1 132253Z 16008KT 12/M02 A2998 RMK A01 T01231018  RH  037%=      5-min Rain = 0
KOD1 132254Z 16007KT 12/M02 A2998 RMK A01 T01231018  RH  037%=      5-min Rain = 0
KOD1 132255Z 16007KT 12/M02 A2998 RMK A01 T01231016  RH  038%=      5-min Rain = 0
KOD1 132256Z 16007KT 12/M02 A2998 RMK A01 T01231017  RH  038%=      5-min Rain = 0
KOD1 132257Z 16008KT 12/M02 A2998 RMK A01 T01231017  RH  038%=      5-min Rain = 0
KOD1 132258Z 16008KT 12/M02 A2998 RMK A01 T01221016  RH  038%=      5-min Rain = 0
KOD1 132259Z 16009KT 12/M02 A2998 RMK A01 T01221016  RH  038%=      5-min Rain = 0
KOD1 132300Z 16009KT 12/M02 A2997 RMK A01 T01211015  RH  039%=      5-min Rain = 0
KOD1 132301Z 16009KT 12/M02 A2998 RMK A01 T01201016  RH  039%=      5-min Rain = 0
KOD1 132302Z 16008KT 12/M02 A2998 RMK A01 T01201016  RH  039%=      5-min Rain = 0
KOD1 132303Z 16009KT 12/M02 A2998 RMK A01 T01191015  RH  039%=      5-min Rain = 0
KOD1 132304Z 16010KT 12/M02 A2998 RMK A01 T01181016  RH  039%=      5-min Rain = 0
KOD1 132305Z 16011KT 12/M02 A2998 RMK A01 T01171017  RH  039%=      5-min Rain = 0
KOD1 132306Z 16011KT 12/M02 A2998 RMK A01 T01161017  RH  039%=      5-min Rain = 0
KOD1 132307Z 17011KT 12/M02 A2998 RMK A01 T01161018  RH  039%=      5-min Rain = 0
KOD1 132308Z 16010KT 12/M02 A2998 RMK A01 T01151018  RH  040%=      5-min Rain = 0
KOD1 132309Z 16009KT 12/M02 A2998 RMK A01 T01151017  RH  040%=      5-min Rain = 0
KOD1 132310Z 16010KT 11/M02 A2998 RMK A01 T01141017  RH  040%=      5-min Rain = 0
KOD1 132311Z 16009KT 11/M02 A2998 RMK A01 T01141017  RH  040%=      5-min Rain = 0
KOD1 132312Z 16009KT 11/M02 A2998 RMK A01 T01131017  RH  040%=      5-min Rain = 0
KOD1 132313Z 16008KT 11/M02 A2998 RMK A01 T01121017  RH  041%=      5-min Rain = 0
KOD1 132314Z 16008KT 11/M02 A2998 RMK A01 T01111017  RH  041%=      5-min Rain = 0
KOD1 132315Z 16008KT 11/M02 A2998 RMK A01 T01111017  RH  041%=      5-min Rain = 0
KOD1 132316Z 16010KT 11/M02 A2998 RMK A01 T01101017  RH  041%=      5-min Rain = 0
KOD1 132317Z 17008KT 11/M02 A2998 RMK A01 T01101017  RH  041%=      5-min Rain = 0
KOD1 132318Z 17009KT 11/M02 A2998 RMK A01 T01091017  RH  041%=      5-min Rain = 0
KOD1 132319Z 16009KT 11/M02 A2998 RMK A01 T01081017  RH  042%=      5-min Rain = 0
KOD1 132320Z 16009KT 11/M02 A2998 RMK A01 T01081017  RH  042%=      5-min Rain = 0
KOD1 132321Z 16008KT 11/M02 A2998 RMK A01 T01081017  RH  042%=      5-min Rain = 0
KOD1 132322Z 16008KT 11/M02 A2998 RMK A01 T01081017  RH  042%=      5-min Rain = 0
KOD1 132323Z 15006KT 11/M02 A2999 RMK A01 T01071016  RH  042%=      5-min Rain = 0
KOD1 132324Z 15006KT 11/M02 A2999 RMK A01 T01061016  RH  043%=      5-min Rain = 0
KOD1 132325Z 16007KT 11/M02 A2999 RMK A01 T01051016  RH  043%=      5-min Rain = 0
KOD1 132326Z 15006KT 10/M02 A2999 RMK A01 T01041016  RH  043%=      5-min Rain = 0
KOD1 132327Z 15007KT 10/M02 A2999 RMK A01 T01031017  RH  043%=      5-min Rain = 0
KOD1 132328Z 15007KT 10/M02 A2999 RMK A01 T01021016  RH  044%=      5-min Rain = 0
KOD1 132329Z 16006KT 10/M02 A2999 RMK A01 T01011016  RH  044%=      5-min Rain = 0
KOD1 132330Z 15006KT 10/M02 A2999 RMK A01 T01001016  RH  044%=      5-min Rain = 0
KOD1 132331Z 15006KT 10/M02 A2999 RMK A01 T00991015  RH  045%=      5-min Rain = 0
KOD1 132332Z 15007KT 10/M02 A2999 RMK A01 T00981016  RH  045%=      5-min Rain = 0
KOD1 132333Z 15006KT 10/M02 A2999 RMK A01 T00971016  RH  045%=      5-min Rain = 0
KOD1 132334Z 16007KT 10/M02 A2999 RMK A01 T00961016  RH  046%=      5-min Rain = 0
KOD1 132335Z 15006KT 10/M02 A2999 RMK A01 T00951016  RH  046%=      5-min Rain = 0
KOD1 132336Z 15007KT 09/M02 A2999 RMK A01 T00941016  RH  046%=      5-min Rain = 0
KOD1 132337Z 15007KT 09/M02 A2999 RMK A01 T00931016  RH  046%=      5-min Rain = 0
KOD1 132338Z 15008KT 09/M02 A2999 RMK A01 T00931016  RH  046%=      5-min Rain = 0
KOD1 132339Z 15008KT 09/M02 A2999 RMK A01 T00931016  RH  047%=      5-min Rain = 0
KOD1 132340Z 15008KT 09/M02 A2999 RMK A01 T00921016  RH  047%=      5-min Rain = 0
KOD1 132341Z 15007KT 09/M02 A2999 RMK A01 T00911016  RH  047%=      5-min Rain = 0
KOD1 132342Z 15007KT 09/M02 A2999 RMK A01 T00911016  RH  047%=      5-min Rain = 0
KOD1 132343Z 15007KT 09/M02 A2999 RMK A01 T00901016  RH  047%=      5-min Rain = 0
KOD1 132344Z 15007KT 09/M02 A2999 RMK A01 T00901016  RH  047%=      5-min Rain = 0
KOD1 132345Z 15008KT 09/M02 A2999 RMK A01 T00891016  RH  048%=      5-min Rain = 0
KOD1 132346Z 15008KT 09/M02 A2999 RMK A01 T00891016  RH  048%=      5-min Rain = 0
KOD1 132347Z 15007KT 09/M02 A2999 RMK A01 T00891016  RH  048%=      5-min Rain = 0
KOD1 132348Z 15008KT 09/M02 A2999 RMK A01 T00891016  RH  048%=      5-min Rain = 0
KOD1 132349Z 15007KT 09/M02 A2999 RMK A01 T00901016  RH  047%=      5-min Rain = 0
KOD1 132350Z 15008KT 09/M02 A2999 RMK A01 T00901016  RH  047%=      5-min Rain = 0
KOD1 132351Z 15008KT 09/M02 A2999 RMK A01 T00881016  RH  048%=      5-min Rain = 0
KOD1 132352Z 15008KT 09/M02 A2999 RMK A01 T00881016  RH  048%=      5-min Rain = 0
KOD1 132353Z 15008KT 09/M02 A2999 RMK A01 T00891016  RH  048%=      5-min Rain = 0
KOD1 132354Z 15007KT 09/M02 A2999 RMK A01 T00881016  RH  048%=      5-min Rain = 0
KOD1 132355Z 15008KT 09/M02 A2999 RMK A01 T00881016  RH  048%=      5-min Rain = 0
KOD1 132356Z 15008KT 09/M02 A2999 RMK A01 T00881016  RH  048%=      5-min Rain = 0
KOD1 132357Z 15008KT 09/M02 A2999 RMK A01 T00881016  RH  048%=      5-min Rain = 0
KOD1 132358Z 15008KT 09/M02 A2999 RMK A01 T00881015  RH  048%=      5-min Rain = 0
KOD1 132359Z 15007KT 09/M02 A2999 RMK A01 T00881015  RH  048%=      5-min Rain = 0
KOD1 140000Z 15007KT 09/M02 A2999 RMK A01 T00871016  RH  048%=      5-min Rain = 0
KOD1 140001Z 15007KT 09/M02 A2999 RMK A01 T00881016  RH  048%=      5-min Rain = 0
KOD1 140002Z 15007KT 09/M02 A2999 RMK A01 T00871015  RH  049%=      5-min Rain = 0
KOD1 140003Z 15008KT 09/M02 A2999 RMK A01 T00861016  RH  049%=      5-min Rain = 0
KOD1 140004Z 15007KT 09/M02 A2999 RMK A01 T00861016  RH  049%=      5-min Rain = 0
KOD1 140005Z 15007KT 09/M02 A2999 RMK A01 T00851016  RH  049%=      5-min Rain = 0
KOD1 140006Z 15008KT 08/M02 A2999 RMK A01 T00841015  RH  050%=      5-min Rain = 0
KOD1 140007Z 15007KT 08/M02 A2999 RMK A01 T00841016  RH  050%=      5-min Rain = 0
KOD1 140008Z 15007KT 08/M02 A2999 RMK A01 T00831015  RH  050%=      5-min Rain = 0
KOD1 140009Z 15007KT 08/M02 A2999 RMK A01 T00821015  RH  050%=      5-min Rain = 0
KOD1 140010Z 15007KT 08/M02 A2999 RMK A01 T00821016  RH  050%=      5-min Rain = 0
KOD1 140011Z 15007KT 08/M02 A2999 RMK A01 T00821016  RH  050%=      5-min Rain = 0
KOD1 140012Z 15008KT 08/M02 A2999 RMK A01 T00821015  RH  050%=      5-min Rain = 0
KOD1 140013Z 15007KT 08/M02 A2999 RMK A01 T00821016  RH  050%=      5-min Rain = 0
KOD1 140014Z 15007KT 08/M02 A2999 RMK A01 T00821016  RH  050%=      5-min Rain = 0
KOD1 140015Z 15007KT 08/M02 A2999 RMK A01 T00821015  RH  050%=      5-min Rain = 0
KOD1 140016Z 15007KT 08/M02 A2999 RMK A01 T00811015  RH  051%=      5-min Rain = 0
KOD1 140017Z 15007KT 08/M02 A2999 RMK A01 T00801015  RH  051%=      5-min Rain = 0
KOD1 140018Z 15007KT 08/M02 A30 RMK A01 T00801015  RH  051%=      5-min Rain = 0
KOD1 140019Z 15007KT 08/M02 A30 RMK A01 T00801016  RH  051%=      5-min Rain = 0
KOD1 140020Z 15006KT 08/M02 A30 RMK A01 T00801016  RH  051%=      5-min Rain = 0
KOD1 140021Z 14006KT 08/M02 A30 RMK A01 T00791016  RH  051%=      5-min Rain = 0
KOD1 140022Z 14006KT 08/M02 A30 RMK A01 T00801015  RH  051%=      5-min Rain = 0
KOD1 140023Z 14006KT 08/M02 A30 RMK A01 T00791015  RH  051%=      5-min Rain = 0
KOD1 140024Z 15006KT 08/M02 A30 RMK A01 T00801016  RH  051%=      5-min Rain = 0
KOD1 140025Z 14006KT 08/M02 A30 RMK A01 T00811016  RH  051%=      5-min Rain = 0
KOD1 140026Z 15007KT 08/M02 A30 RMK A01 T00811016  RH  050%=      5-min Rain = 0
KOD1 140027Z 15007KT 08/M02 A30 RMK A01 T00811016  RH  051%=      5-min Rain = 0
KOD1 140028Z 14007KT 08/M02 A30 RMK A01 T00801016  RH  051%=      5-min Rain = 0
KOD1 140029Z 14007KT 08/M02 A30 RMK A01 T00801016  RH  051%=      5-min Rain = 0
KOD1 140030Z 13008KT 08/M02 A30 RMK A01 T00791016  RH  051%=      5-min Rain = 0
KOD1 140031Z 13008KT 08/M02 A30 RMK A01 T00791016  RH  051%=      5-min Rain = 0
KOD1 140032Z 13007KT 08/M02 A3001 RMK A01 T00801015  RH  051%=      5-min Rain = 0
KOD1 140033Z 13008KT 08/M02 A3001 RMK A01 T00821015  RH  050%=      5-min Rain = 0
KOD1 140034Z 13007KT 08/M02 A3001 RMK A01 T00821015  RH  050%=      5-min Rain = 0
KOD1 140035Z 13007KT 08/M02 A3001 RMK A01 T00811015  RH  051%=      5-min Rain = 0
KOD1 140036Z 13007KT 08/M02 A3001 RMK A01 T00801015  RH  051%=      5-min Rain = 0
KOD1 140037Z 13007KT 08/M02 A30 RMK A01 T00801015  RH  051%=      5-min Rain = 0
KOD1 140038Z 13007KT 08/M02 A3001 RMK A01 T00791015  RH  051%=      5-min Rain = 0
KOD1 140039Z 13007KT 08/M02 A3001 RMK A01 T00781016  RH  052%=      5-min Rain = 0
KOD1 140040Z 13007KT 08/M02 A3001 RMK A01 T00771016  RH  052%=      5-min Rain = 0
KOD1 140041Z 13007KT 08/M02 A3001 RMK A01 T00761016  RH  052%=      5-min Rain = 0
KOD1 140042Z 13007KT 08/M02 A3001 RMK A01 T00751017  RH  052%=      5-min Rain = 0
KOD1 140043Z 13007KT 08/M02 A3001 RMK A01 T00751017  RH  052%=      5-min Rain = 0
KOD1 140044Z 12008KT 07/M02 A3001 RMK A01 T00741018  RH  052%=      5-min Rain = 0
KOD1 140045Z 12007KT 07/M02 A3001 RMK A01 T00741018  RH  052%=      5-min Rain = 0
KOD1 140046Z 12007KT 07/M02 A3001 RMK A01 T00741018  RH  052%=      5-min Rain = 0
KOD1 140047Z 12007KT 07/M02 A3001 RMK A01 T00741018  RH  052%=      5-min Rain = 0
KOD1 140048Z 12008KT 07/M02 A3001 RMK A01 T00741018  RH  052%=      5-min Rain = 0
KOD1 140049Z 12008KT 07/M02 A3001 RMK A01 T00741019  RH  052%=      5-min Rain = 0
KOD1 140050Z 12008KT 08/M02 A3001 RMK A01 T00751020  RH  051%=      5-min Rain = 0
KOD1 140051Z 12008KT 08/M02 A3001 RMK A01 T00761022  RH  050%=      5-min Rain = 0
KOD1 140052Z 12008KT 08/M02 A3001 RMK A01 T00761022  RH  050%=      5-min Rain = 0
KOD1 140053Z 13008KT 08/M02 A3001 RMK A01 T00761023  RH  049%=      5-min Rain = 0
KOD1 140054Z 13007KT 08/M02 A3001 RMK A01 T00761024  RH  049%=      5-min Rain = 0
KOD1 140055Z 12007KT 08/M02 A3001 RMK A01 T00751024  RH  049%=      5-min Rain = 0
KOD1 140056Z 12007KT 07/M03 A3001 RMK A01 T00741025  RH  049%=      5-min Rain = 0
KOD1 140057Z 12007KT 07/M03 A3001 RMK A01 T00731025  RH  050%=      5-min Rain = 0
KOD1 140058Z 12007KT 07/M03 A3001 RMK A01 T00731025  RH  050%=      5-min Rain = 0
KOD1 140059Z 12008KT 07/M03 A3002 RMK A01 T00721026  RH  050%=      5-min Rain = 0
KOD1 140100Z 12008KT 07/M03 A3002 RMK A01 T00721027  RH  049%=      5-min Rain = 0
KOD1 140101Z 12008KT 07/M03 A3002 RMK A01 T00721028  RH  049%=      5-min Rain = 0
KOD1 140102Z 12007KT 07/M03 A3002 RMK A01 T00721029  RH  049%=      5-min Rain = 0
KOD1 140103Z 12008KT 07/M03 A3002 RMK A01 T00711029  RH  049%=      5-min Rain = 0
KOD1 140104Z 12008KT 07/M03 A3002 RMK A01 T00721031  RH  048%=      5-min Rain = 0
KOD1 140105Z 12008KT 07/M03 A3002 RMK A01 T00721031  RH  048%=      5-min Rain = 0
KOD1 140106Z 12008KT 07/M03 A3002 RMK A01 T00721031  RH  048%=      5-min Rain = 0
KOD1 140107Z 12008KT 07/M03 A3002 RMK A01 T00721032  RH  048%=      5-min Rain = 0
KOD1 140108Z 12008KT 07/M03 A3002 RMK A01 T00731032  RH  047%=      5-min Rain = 0
KOD1 140109Z 13009KT 07/M03 A3002 RMK A01 T00741033  RH  047%=      5-min Rain = 0
KOD1 140110Z 13009KT 07/M04 A3002 RMK A01 T00741035  RH  046%=      5-min Rain = 0
KOD1 140111Z 13008KT 08/M04 A3002 RMK A01 T00751035  RH  046%=      5-min Rain = 0
KOD1 140112Z 13008KT 08/M04 A3002 RMK A01 T00751036  RH  045%=      5-min Rain = 0
KOD1 140113Z 13009KT 08/M04 A3002 RMK A01 T00751037  RH  045%=      5-min Rain = 0
KOD1 140114Z 13008KT 08/M04 A3002 RMK A01 T00751037  RH  045%=      5-min Rain = 0
KOD1 140115Z 13008KT 07/M04 A3002 RMK A01 T00741037  RH  045%=      5-min Rain = 0
KOD1 140116Z 13008KT 07/M04 A3002 RMK A01 T00731037  RH  046%=      5-min Rain = 0
KOD1 140117Z 13008KT 07/M04 A3003 RMK A01 T00721037  RH  046%=      5-min Rain = 0
KOD1 140118Z 13008KT 07/M04 A3003 RMK A01 T00711037  RH  046%=      5-min Rain = 0
KOD1 140119Z 13008KT 07/M04 A3003 RMK A01 T00701037  RH  046%=      5-min Rain = 0
KOD1 140120Z 13008KT 07/M04 A3003 RMK A01 T00701038  RH  046%=      5-min Rain = 0
KOD1 140121Z 13008KT 07/M04 A3003 RMK A01 T00701038  RH  046%=      5-min Rain = 0
KOD1 140122Z 13008KT 07/M04 A3003 RMK A01 T00691038  RH  046%=      5-min Rain = 0
KOD1 140123Z 12008KT 07/M04 A3003 RMK A01 T00681038  RH  047%=      5-min Rain = 0
KOD1 140124Z 12008KT 07/M04 A3003 RMK A01 T00681038  RH  047%=      5-min Rain = 0
KOD1 140125Z 13008KT 07/M04 A3003 RMK A01 T00681038  RH  047%=      5-min Rain = 0
KOD1 140126Z 13008KT 07/M04 A3003 RMK A01 T00681038  RH  047%=      5-min Rain = 0
KOD1 140127Z 13009KT 07/M04 A3003 RMK A01 T00681038  RH  047%=      5-min Rain = 0
KOD1 140128Z 13009KT 07/M04 A3003 RMK A01 T00671038  RH  047%=      5-min Rain = 0
KOD1 140129Z 13009KT 07/M04 A3003 RMK A01 T00671038  RH  047%=      5-min Rain = 0
KOD1 140130Z 13009KT 07/M04 A3003 RMK A01 T00671039  RH  047%=      5-min Rain = 0
KOD1 140131Z 12009KT 07/M04 A3003 RMK A01 T00671039  RH  047%=      5-min Rain = 0
KOD1 140132Z 13009KT 07/M04 A3003 RMK A01 T00661039  RH  047%=      5-min Rain = 0
KOD1 140133Z 13009KT 07/M04 A3003 RMK A01 T00661039  RH  047%=      5-min Rain = 0
KOD1 140134Z 12008KT 07/M04 A3003 RMK A01 T00661040  RH  047%=      5-min Rain = 0
KOD1 140135Z 13009KT 07/M04 A3003 RMK A01 T00661041  RH  047%=      5-min Rain = 0
KOD1 140136Z 12009KT 07/M04 A3003 RMK A01 T00661041  RH  046%=      5-min Rain = 0
KOD1 140137Z 13009KT 07/M04 A3003 RMK A01 T00661041  RH  046%=      5-min Rain = 0
KOD1 140138Z 12009KT 07/M04 A3003 RMK A01 T00651041  RH  047%=      5-min Rain = 0
KOD1 140139Z 12009KT 07/M04 A3003 RMK A01 T00651041  RH  046%=      5-min Rain = 0
KOD1 140140Z 12008KT 07/M04 A3003 RMK A01 T00651042  RH  046%=      5-min Rain = 0
KOD1 140141Z 12008KT 07/M04 A3003 RMK A01 T00661042  RH  046%=      5-min Rain = 0
KOD1 140142Z 12009KT 07/M04 A3003 RMK A01 T00661043  RH  046%=      5-min Rain = 0
KOD1 140143Z 12009KT 07/M04 A3003 RMK A01 T00671043  RH  045%=      5-min Rain = 0
KOD1 140144Z 12009KT 07/M04 A3003 RMK A01 T00681043  RH  045%=      5-min Rain = 0
KOD1 140145Z 12008KT 07/M04 A3003 RMK A01 T00681044  RH  045%=      5-min Rain = 0
KOD1 140146Z 12008KT 07/M04 A3003 RMK A01 T00671044  RH  045%=      5-min Rain = 0
KOD1 140147Z 12009KT 07/M04 A3003 RMK A01 T00671044  RH  045%=      5-min Rain = 0
KOD1 140148Z 12008KT 07/M04 A3003 RMK A01 T00671044  RH  045%=      5-min Rain = 0
KOD1 140149Z 12008KT 07/M05 A3003 RMK A01 T00661045  RH  045%=      5-min Rain = 0
KOD1 140150Z 12008KT 07/M05 A3003 RMK A01 T00661045  RH  045%=      5-min Rain = 0
KOD1 140151Z 12008KT 07/M05 A3003 RMK A01 T00651045  RH  045%=      5-min Rain = 0
KOD1 140152Z 12008KT 07/M05 A3003 RMK A01 T00651045  RH  045%=      5-min Rain = 0
KOD1 140153Z 12008KT 06/M05 A3003 RMK A01 T00631045  RH  046%=      5-min Rain = 0
KOD1 140154Z 12008KT 06/M05 A3003 RMK A01 T00621045  RH  046%=      5-min Rain = 0
KOD1 140155Z 12008KT 06/M05 A3003 RMK A01 T00621045  RH  046%=      5-min Rain = 0
KOD1 140156Z 12008KT 06/M05 A3003 RMK A01 T00611045  RH  047%=      5-min Rain = 0
KOD1 140157Z 11008KT 06/M05 A3003 RMK A01 T00601045  RH  047%=      5-min Rain = 0
KOD1 140158Z 11008KT 06/M05 A3004 RMK A01 T00601045  RH  047%=      5-min Rain = 0
KOD1 140159Z 11007KT 06/M05 A3004 RMK A01 T00601045  RH  047%=      5-min Rain = 0
KOD1 140200Z 11007KT 06/M05 A3004 RMK A01 T00601045  RH  047%=      5-min Rain = 0
KOD1 140201Z 11007KT 06/M05 A3004 RMK A01 T00591045  RH  047%=      5-min Rain = 0
KOD1 140202Z 11007KT 06/M04 A3004 RMK A01 T00581044  RH  048%=      5-min Rain = 0
KOD1 140203Z 11008KT 06/M04 A3004 RMK A01 T00571044  RH  048%=      5-min Rain = 0
KOD1 140204Z 11007KT 06/M04 A3004 RMK A01 T00561044  RH  049%=      5-min Rain = 0
KOD1 140205Z 11007KT 06/M04 A3004 RMK A01 T00551043  RH  049%=      5-min Rain = 0
KOD1 140206Z 11006KT 05/M04 A3004 RMK A01 T00541043  RH  050%=      5-min Rain = 0
KOD1 140207Z 11007KT 05/M04 A3004 RMK A01 T00541043  RH  050%=      5-min Rain = 0
KOD1 140208Z 11007KT 05/M04 A3004 RMK A01 T00531043  RH  050%=      5-min Rain = 0
KOD1 140209Z 11007KT 05/M04 A3004 RMK A01 T00531043  RH  050%=      5-min Rain = 0
KOD1 140210Z 11006KT 05/M04 A3004 RMK A01 T00521043  RH  050%=      5-min Rain = 0
KOD1 140211Z 11007KT 05/M04 A3004 RMK A01 T00521043  RH  050%=      5-min Rain = 0
KOD1 140212Z 11007KT 05/M04 A3004 RMK A01 T00521043  RH  050%=      5-min Rain = 0
KOD1 140213Z 12007KT 05/M04 A3004 RMK A01 T00521043  RH  050%=      5-min Rain = 0
KOD1 140214Z 12008KT 05/M04 A3004 RMK A01 T00521044  RH  050%=      5-min Rain = 0
KOD1 140215Z 11007KT 05/M04 A3004 RMK A01 T00531044  RH  050%=      5-min Rain = 0
KOD1 140216Z 11007KT 05/M04 A3004 RMK A01 T00521044  RH  050%=      5-min Rain = 0
KOD1 140217Z 11007KT 05/M04 A3004 RMK A01 T00521044  RH  050%=      5-min Rain = 0
KOD1 140218Z 11007KT 05/M04 A3004 RMK A01 T00511044  RH  050%=      5-min Rain = 0
KOD1 140219Z 11007KT 05/M04 A3004 RMK A01 T00501044  RH  051%=      5-min Rain = 0
KOD1 140220Z 11007KT 05/M04 A3004 RMK A01 T00501044  RH  051%=      5-min Rain = 0
KOD1 140221Z 11008KT 05/M04 A3005 RMK A01 T00491044  RH  051%=      5-min Rain = 0
KOD1 140222Z 11008KT 05/M04 A3005 RMK A01 T00491044  RH  051%=      5-min Rain = 0
KOD1 140223Z 11007KT 05/M05 A3005 RMK A01 T00491045  RH  051%=      5-min Rain = 0
KOD1 140224Z 11007KT 05/M05 A3005 RMK A01 T00481045  RH  051%=      5-min Rain = 0
KOD1 140225Z 11007KT 05/M05 A3005 RMK A01 T00481045  RH  051%=      5-min Rain = 0
KOD1 140226Z 12007KT 05/M05 A3005 RMK A01 T00481045  RH  051%=      5-min Rain = 0
KOD1 140227Z 11006KT 05/M05 A3005 RMK A01 T00481045  RH  051%=      5-min Rain = 0
KOD1 140228Z 12006KT 05/M05 A3005 RMK A01 T00471045  RH  051%=      5-min Rain = 0
KOD1 140229Z 12007KT 05/M05 A3005 RMK A01 T00471045  RH  051%=      5-min Rain = 0
KOD1 140230Z 11007KT 05/M05 A3005 RMK A01 T00471046  RH  051%=      5-min Rain = 0
KOD1 140231Z 11007KT 05/M05 A3005 RMK A01 T00471046  RH  051%=      5-min Rain = 0
KOD1 140232Z 11007KT 05/M05 A3005 RMK A01 T00471046  RH  051%=      5-min Rain = 0
KOD1 140233Z 11007KT 05/M05 A3005 RMK A01 T00461046  RH  051%=      5-min Rain = 0
KOD1 140234Z 11007KT 05/M05 A3005 RMK A01 T00451045  RH  052%=      5-min Rain = 0
KOD1 140235Z 11007KT 05/M05 A3005 RMK A01 T00451046  RH  052%=      5-min Rain = 0
KOD1 140236Z 11007KT 05/M05 A3005 RMK A01 T00451046  RH  052%=      5-min Rain = 0
KOD1 140237Z 11006KT 04/M05 A3005 RMK A01 T00441046  RH  052%=      5-min Rain = 0
KOD1 140238Z 11006KT 04/M05 A3005 RMK A01 T00441046  RH  052%=      5-min Rain = 0
KOD1 140239Z 10007KT 04/M05 A3005 RMK A01 T00441046  RH  052%=      5-min Rain = 0
KOD1 140240Z 11006KT 04/M05 A3005 RMK A01 T00431046  RH  052%=      5-min Rain = 0
KOD1 140241Z 11006KT 04/M05 A3005 RMK A01 T00431046  RH  052%=      5-min Rain = 0
KOD1 140242Z 11007KT 04/M05 A3006 RMK A01 T00431046  RH  053%=      5-min Rain = 0
KOD1 140243Z 11007KT 04/M05 A3006 RMK A01 T00431046  RH  053%=      5-min Rain = 0
KOD1 140244Z 11007KT 04/M05 A3006 RMK A01 T00431046  RH  052%=      5-min Rain = 0
KOD1 140245Z 11007KT 04/M05 A3006 RMK A01 T00431046  RH  052%=      5-min Rain = 0
KOD1 140246Z 11007KT 04/M05 A3006 RMK A01 T00431046  RH  052%=      5-min Rain = 0
KOD1 140247Z 11007KT 04/M05 A3006 RMK A01 T00421046  RH  053%=      5-min Rain = 0
KOD1 140248Z 12007KT 04/M05 A3006 RMK A01 T00421046  RH  053%=      5-min Rain = 0
KOD1 140249Z 11008KT 04/M05 A3006 RMK A01 T00421046  RH  053%=      5-min Rain = 0
KOD1 140250Z 11008KT 04/M05 A3006 RMK A01 T00421046  RH  053%=      5-min Rain = 0
KOD1 140251Z 11008KT 04/M05 A3006 RMK A01 T00411046  RH  053%=      5-min Rain = 0
KOD1 140252Z 11007KT 04/M05 A3006 RMK A01 T00411046  RH  053%=      5-min Rain = 0
KOD1 140253Z 11007KT 04/M05 A3006 RMK A01 T00411046  RH  053%=      5-min Rain = 0
KOD1 140254Z 11007KT 04/M05 A3006 RMK A01 T00411046  RH  053%=      5-min Rain = 0
KOD1 140255Z 11007KT 04/M05 A3006 RMK A01 T00411046  RH  053%=      5-min Rain = 0
KOD1 140256Z 10007KT 04/M05 A3006 RMK A01 T00411046  RH  053%=      5-min Rain = 0
KOD1 140257Z 10006KT 04/M05 A3006 RMK A01 T00411046  RH  053%=      5-min Rain = 0
KOD1 140258Z 10006KT 04/M05 A3006 RMK A01 T00411046  RH  053%=      5-min Rain = 0
KOD1 140259Z 10006KT 04/M05 A3006 RMK A01 T00401047  RH  053%=      5-min Rain = 0
KOD1 140300Z 10006KT 04/M05 A3006 RMK A01 T00401047  RH  053%=      5-min Rain = 0
KOD1 140301Z 10006KT 04/M05 A3006 RMK A01 T00391046  RH  054%=      5-min Rain = 0
KOD1 140302Z 10006KT 04/M05 A3006 RMK A01 T00391047  RH  054%=      5-min Rain = 0
KOD1 140303Z 10006KT 04/M05 A3007 RMK A01 T00381046  RH  054%=      5-min Rain = 0
KOD1 140304Z 10006KT 04/M05 A3007 RMK A01 T00371046  RH  054%=      5-min Rain = 0
KOD1 140305Z 10006KT 04/M05 A3007 RMK A01 T00371046  RH  055%=      5-min Rain = 0
KOD1 140306Z 10006KT 04/M05 A3007 RMK A01 T00361046  RH  055%=      5-min Rain = 0
KOD1 140307Z 10006KT 04/M05 A3007 RMK A01 T00361046  RH  055%=      5-min Rain = 0
KOD1 140308Z 10006KT 04/M05 A3007 RMK A01 T00351047  RH  055%=      5-min Rain = 0
KOD1 140309Z 10006KT 04/M05 A3007 RMK A01 T00351047  RH  055%=      5-min Rain = 0
KOD1 140310Z 10006KT 04/M05 A3007 RMK A01 T00351046  RH  055%=      5-min Rain = 0
KOD1 140311Z 10007KT 04/M05 A3007 RMK A01 T00351046  RH  055%=      5-min Rain = 0
KOD1 140312Z 10006KT 04/M05 A3007 RMK A01 T00361046  RH  055%=      5-min Rain = 0
KOD1 140313Z 10006KT 04/M05 A3007 RMK A01 T00361046  RH  055%=      5-min Rain = 0
KOD1 140314Z 10006KT 04/M05 A3007 RMK A01 T00351046  RH  055%=      5-min Rain = 0
KOD1 140315Z 10006KT 04/M05 A3007 RMK A01 T00351046  RH  055%=      5-min Rain = 0
KOD1 140316Z 10006KT 03/M05 A3007 RMK A01 T00341046  RH  056%=      5-min Rain = 0
KOD1 140317Z 10006KT 03/M05 A3007 RMK A01 T00341047  RH  056%=      5-min Rain = 0
KOD1 140318Z 10006KT 03/M05 A3007 RMK A01 T00341047  RH  055%=      5-min Rain = 0
KOD1 140319Z 09005KT 03/M05 A3007 RMK A01 T00341047  RH  055%=      5-min Rain = 0
KOD1 140320Z 09005KT 03/M05 A3007 RMK A01 T00331047  RH  056%=      5-min Rain = 0
KOD1 140321Z 09006KT 03/M05 A3007 RMK A01 T00321047  RH  056%=      5-min Rain = 0
KOD1 140322Z 09006KT 03/M05 A3007 RMK A01 T00311047  RH  056%=      5-min Rain = 0
KOD1 140323Z 09006KT 03/M05 A3007 RMK A01 T00301047  RH  057%=      5-min Rain = 0
KOD1 140324Z 09006KT 03/M05 A3007 RMK A01 T00291047  RH  057%=      5-min Rain = 0
KOD1 140325Z 09006KT 03/M05 A3007 RMK A01 T00301047  RH  057%=      5-min Rain = 0
KOD1 140326Z 09007KT 03/M05 A3008 RMK A01 T00291047  RH  057%=      5-min Rain = 0
KOD1 140327Z 09007KT 03/M05 A3008 RMK A01 T00281047  RH  058%=      5-min Rain = 0
KOD1 140328Z 09007KT 03/M05 A3008 RMK A01 T00281046  RH  058%=      5-min Rain = 0
KOD1 140329Z 09007KT 03/M05 A3008 RMK A01 T00281046  RH  058%=      5-min Rain = 0
KOD1 140330Z 09006KT 03/M05 A3008 RMK A01 T00271047  RH  058%=      5-min Rain = 0
KOD1 140331Z 09007KT 03/M05 A3008 RMK A01 T00271047  RH  058%=      5-min Rain = 0
KOD1 140332Z 09007KT 03/M05 A3008 RMK A01 T00261047  RH  059%=      5-min Rain = 0
KOD1 140333Z 09007KT 03/M05 A3008 RMK A01 T00261047  RH  059%=      5-min Rain = 0
KOD1 140334Z 09007KT 03/M05 A3008 RMK A01 T00251047  RH  059%=      5-min Rain = 0
KOD1 140335Z 09007KT 03/M05 A3008 RMK A01 T00251047  RH  059%=      5-min Rain = 0
KOD1 140336Z 09007KT 03/M05 A3008 RMK A01 T00261047  RH  059%=      5-min Rain = 0
KOD1 140337Z 09008KT 03/M05 A3008 RMK A01 T00271046  RH  059%=      5-min Rain = 0
KOD1 140338Z 09008KT 03/M05 A3008 RMK A01 T00271046  RH  059%=      5-min Rain = 0
KOD1 140339Z 09007KT 03/M05 A3008 RMK A01 T00271046  RH  059%=      5-min Rain = 0
KOD1 140340Z 09007KT 03/M05 A3008 RMK A01 T00261046  RH  059%=      5-min Rain = 0
KOD1 140341Z 09007KT 03/M05 A3008 RMK A01 T00261046  RH  059%=      5-min Rain = 0
KOD1 140342Z 09007KT 03/M05 A3008 RMK A01 T00251046  RH  059%=      5-min Rain = 0
KOD1 140343Z 09006KT 02/M05 A3008 RMK A01 T00241046  RH  060%=      5-min Rain = 0
KOD1 140344Z 09007KT 02/M05 A3009 RMK A01 T00241046  RH  060%=      5-min Rain = 0
KOD1 140345Z 09008KT 02/M05 A3009 RMK A01 T00241046  RH  060%=      5-min Rain = 0
KOD1 140346Z 09008KT 02/M05 A3009 RMK A01 T00241046  RH  060%=      5-min Rain = 0
KOD1 140347Z 09008KT 03/M05 A3009 RMK A01 T00251045  RH  060%=      5-min Rain = 0
KOD1 140348Z 10008KT 03/M05 A3009 RMK A01 T00251045  RH  060%=      5-min Rain = 0
KOD1 140349Z 10007KT 03/M05 A3009 RMK A01 T00261045  RH  060%=      5-min Rain = 0
KOD1 140350Z 09007KT 03/M05 A3009 RMK A01 T00261045  RH  060%=      5-min Rain = 0
KOD1 140351Z 09008KT 03/M05 A3009 RMK A01 T00261045  RH  060%=      5-min Rain = 0
KOD1 140352Z 09008KT 03/M05 A3009 RMK A01 T00261045  RH  060%=      5-min Rain = 0
KOD1 140353Z 10007KT 03/M04 A3009 RMK A01 T00261044  RH  060%=      5-min Rain = 0
KOD1 140354Z 10007KT 03/M04 A3009 RMK A01 T00261044  RH  060%=      5-min Rain = 0
KOD1 140355Z 10007KT 03/M05 A3009 RMK A01 T00261045  RH  060%=      5-min Rain = 0
KOD1 140356Z 10007KT 03/M04 A3009 RMK A01 T00261044  RH  060%=      5-min Rain = 0
KOD1 140357Z 09008KT 03/M05 A3009 RMK A01 T00251045  RH  060%=      5-min Rain = 0
KOD1 140358Z 09007KT 03/M05 A3009 RMK A01 T00251045  RH  060%=      5-min Rain = 0
KOD1 140359Z 09007KT 02/M05 A3009 RMK A01 T00241045  RH  060%=      5-min Rain = 0
KOD1 140400Z 10007KT 02/M05 A3009 RMK A01 T00241045  RH  060%=      5-min Rain = 0
KOD1 140401Z 10008KT 02/M05 A3008 RMK A01 T00241045  RH  061%=      5-min Rain = 0
KOD1 140402Z 10007KT 02/M05 A3008 RMK A01 T00241045  RH  061%=      5-min Rain = 0
KOD1 140403Z 10007KT 02/M05 A3008 RMK A01 T00241045  RH  060%=      5-min Rain = 0
KOD1 140404Z 09007KT 02/M05 A3009 RMK A01 T00241045  RH  060%=      5-min Rain = 0
KOD1 140405Z 09008KT 02/M05 A3009 RMK A01 T00231045  RH  061%=      5-min Rain = 0
KOD1 140406Z 09007KT 02/M05 A3009 RMK A01 T00221046  RH  061%=      5-min Rain = 0
KOD1 140407Z 10007KT 02/M05 A3009 RMK A01 T00221045  RH  061%=      5-min Rain = 0
KOD1 140408Z 10007KT 02/M05 A3009 RMK A01 T00221045  RH  061%=      5-min Rain = 0
KOD1 140409Z 10007KT 02/M05 A3009 RMK A01 T00221045  RH  061%=      5-min Rain = 0
KOD1 140410Z 10008KT 02/M05 A3009 RMK A01 T00221045  RH  061%=      5-min Rain = 0
KOD1 140411Z 09007KT 02/M05 A3009 RMK A01 T00221046  RH  061%=      5-min Rain = 0
KOD1 140412Z 09007KT 02/M05 A3009 RMK A01 T00221046  RH  061%=      5-min Rain = 0
KOD1 140413Z 09007KT 02/M05 A3009 RMK A01 T00211046  RH  061%=      5-min Rain = 0
KOD1 140414Z 09006KT 02/M05 A3009 RMK A01 T00201046  RH  062%=      5-min Rain = 0
KOD1 140415Z 09007KT 02/M05 A3009 RMK A01 T00201046  RH  062%=      5-min Rain = 0
KOD1 140416Z 10006KT 02/M05 A3009 RMK A01 T00191046  RH  062%=      5-min Rain = 0
KOD1 140417Z 09008KT 02/M05 A3009 RMK A01 T00191046  RH  062%=      5-min Rain = 0
KOD1 140418Z 09007KT 02/M05 A3009 RMK A01 T00191046  RH  062%=      5-min Rain = 0
KOD1 140419Z 09007KT 02/M05 A3009 RMK A01 T00191046  RH  062%=      5-min Rain = 0
KOD1 140420Z 09007KT 02/M05 A3009 RMK A01 T00191046  RH  062%=      5-min Rain = 0
KOD1 140421Z 09007KT 02/M05 A3009 RMK A01 T00181047  RH  062%=      5-min Rain = 0
KOD1 140422Z 09006KT 02/M05 A3009 RMK A01 T00181047  RH  062%=      5-min Rain = 0
KOD1 140423Z 09007KT 02/M05 A3009 RMK A01 T00181047  RH  062%=      5-min Rain = 0
KOD1 140424Z 09007KT 02/M05 A3009 RMK A01 T00181047  RH  062%=      5-min Rain = 0
KOD1 140425Z 09007KT 02/M05 A3009 RMK A01 T00181047  RH  062%=      5-min Rain = 0
KOD1 140426Z 09007KT 02/M05 A3009 RMK A01 T00181047  RH  062%=      5-min Rain = 0
KOD1 140427Z 09007KT 02/M05 A3009 RMK A01 T00181047  RH  062%=      5-min Rain = 0
KOD1 140428Z 09007KT 02/M05 A3009 RMK A01 T00181047  RH  062%=      5-min Rain = 0
KOD1 140429Z 09007KT 02/M05 A3009 RMK A01 T00181047  RH  062%=      5-min Rain = 0
KOD1 140430Z 09007KT 02/M05 A3009 RMK A01 T00181047  RH  062%=      5-min Rain = 0
KOD1 140431Z 08007KT 02/M05 A3009 RMK A01 T00181048  RH  062%=      5-min Rain = 0
KOD1 140432Z 09007KT 02/M05 A3009 RMK A01 T00171048  RH  062%=      5-min Rain = 0
KOD1 140433Z 09007KT 02/M05 A3009 RMK A01 T00171047  RH  062%=      5-min Rain = 0
KOD1 140434Z 09007KT 02/M05 A3009 RMK A01 T00171047  RH  062%=      5-min Rain = 0
KOD1 140435Z 09007KT 02/M05 A3009 RMK A01 T00181047  RH  062%=      5-min Rain = 0
KOD1 140436Z 09007KT 02/M05 A3009 RMK A01 T00181047  RH  062%=      5-min Rain = 0
KOD1 140437Z 09007KT 02/M05 A301 RMK A01 T00171048  RH  062%=      5-min Rain = 0
KOD1 140438Z 08007KT 02/M05 A301 RMK A01 T00171048  RH  062%=      5-min Rain = 0
KOD1 140439Z 09007KT 02/M05 A301 RMK A01 T00171048  RH  062%=      5-min Rain = 0
KOD1 140440Z 09007KT 02/M05 A301 RMK A01 T00171048  RH  062%=      5-min Rain = 0
KOD1 140441Z 09007KT 02/M05 A301 RMK A01 T00171048  RH  062%=      5-min Rain = 0
KOD1 140442Z 09008KT 02/M05 A301 RMK A01 T00171048  RH  062%=      5-min Rain = 0
KOD1 140443Z 09008KT 02/M05 A301 RMK A01 T00171048  RH  062%=      5-min Rain = 0
KOD1 140444Z 09007KT 02/M05 A301 RMK A01 T00181048  RH  062%=      5-min Rain = 0
KOD1 140445Z 09007KT 02/M05 A301 RMK A01 T00181048  RH  062%=      5-min Rain = 0
KOD1 140446Z 10007KT 02/M05 A301 RMK A01 T00171048  RH  062%=      5-min Rain = 0
KOD1 140447Z 09007KT 02/M05 A301 RMK A01 T00181048  RH  062%=      5-min Rain = 0
KOD1 140448Z 09007KT 02/M05 A301 RMK A01 T00171048  RH  062%=      5-min Rain = 0
KOD1 140449Z 09007KT 02/M05 A301 RMK A01 T00171048  RH  062%=      5-min Rain = 0
KOD1 140450Z 09007KT 02/M05 A301 RMK A01 T00171048  RH  062%=      5-min Rain = 0
KOD1 140451Z 09007KT 02/M05 A301 RMK A01 T00171048  RH  062%=      5-min Rain = 0
KOD1 140452Z 09006KT 02/M05 A301 RMK A01 T00161048  RH  062%=      5-min Rain = 0
KOD1 140453Z 09007KT 02/M05 A301 RMK A01 T00161048  RH  062%=      5-min Rain = 0
KOD1 140454Z 09007KT 02/M05 A301 RMK A01 T00151049  RH  063%=      5-min Rain = 0
KOD1 140455Z 09007KT 02/M05 A301 RMK A01 T00151049  RH  063%=      5-min Rain = 0
KOD1 140456Z 09007KT 02/M05 A301 RMK A01 T00161048  RH  062%=      5-min Rain = 0
KOD1 140457Z 09007KT 02/M05 A301 RMK A01 T00151049  RH  062%=      5-min Rain = 0
KOD1 140458Z 09007KT 02/M05 A301 RMK A01 T00151049  RH  062%=      5-min Rain = 0
KOD1 140459Z 09007KT 02/M05 A301 RMK A01 T00151049  RH  063%=      5-min Rain = 0
KOD1 140500Z 09007KT 02/M05 A301 RMK A01 T00151049  RH  063%=      5-min Rain = 0
KOD1 140501Z 09007KT 02/M05 A301 RMK A01 T00151049  RH  063%=      5-min Rain = 0
KOD1 140502Z 09007KT 02/M05 A301 RMK A01 T00151049  RH  063%=      5-min Rain = 0
KOD1 140503Z 09006KT 02/M05 A301 RMK A01 T00151049  RH  063%=      5-min Rain = 0
KOD1 140504Z 09007KT 02/M05 A301 RMK A01 T00151049  RH  063%=      5-min Rain = 0
KOD1 140505Z 09006KT 02/M05 A301 RMK A01 T00151049  RH  062%=      5-min Rain = 0
KOD1 140506Z 09006KT 02/M05 A301 RMK A01 T00151049  RH  062%=      5-min Rain = 0
KOD1 140507Z 09006KT 01/M05 A301 RMK A01 T00141049  RH  063%=      5-min Rain = 0
KOD1 140508Z 09006KT 01/M05 A301 RMK A01 T00141049  RH  063%=      5-min Rain = 0
KOD1 140509Z 09006KT 01/M05 A301 RMK A01 T00141050  RH  062%=      5-min Rain = 0
KOD1 140510Z 09006KT 02/M05 A301 RMK A01 T00151049  RH  062%=      5-min Rain = 0
KOD1 140511Z 09005KT 01/M05 A301 RMK A01 T00141050  RH  063%=      5-min Rain = 0
KOD1 140512Z 09006KT 01/M05 A301 RMK A01 T00141050  RH  063%=      5-min Rain = 0
KOD1 140513Z 09006KT 01/M05 A301 RMK A01 T00141050  RH  063%=      5-min Rain = 0
KOD1 140514Z 09006KT 01/M05 A301 RMK A01 T00131050  RH  063%=      5-min Rain = 0
KOD1 140515Z 09007KT 01/M05 A301 RMK A01 T00131050  RH  063%=      5-min Rain = 0
KOD1 140516Z 10006KT 01/M05 A301 RMK A01 T00131050  RH  063%=      5-min Rain = 0
KOD1 140517Z 10007KT 01/M05 A301 RMK A01 T00131050  RH  063%=      5-min Rain = 0
KOD1 140518Z 10007KT 01/M05 A301 RMK A01 T00131049  RH  063%=      5-min Rain = 0
KOD1 140519Z 10007KT 01/M05 A301 RMK A01 T00121050  RH  063%=      5-min Rain = 0
KOD1 140520Z 10007KT 01/M05 A301 RMK A01 T00121050  RH  063%=      5-min Rain = 0
KOD1 140521Z 09008KT 01/M05 A301 RMK A01 T00121050  RH  063%=      5-min Rain = 0
KOD1 140522Z 09008KT 01/M05 A301 RMK A01 T00121050  RH  063%=      5-min Rain = 0
KOD1 140523Z 09008KT 01/M05 A301 RMK A01 T00121050  RH  063%=      5-min Rain = 0
KOD1 140524Z 09008KT 01/M05 A301 RMK A01 T00121049  RH  063%=      5-min Rain = 0
KOD1 140525Z 10008KT 01/M05 A301 RMK A01 T00121050  RH  063%=      5-min Rain = 0
KOD1 140526Z 09008KT 01/M05 A301 RMK A01 T00131050  RH  063%=      5-min Rain = 0
KOD1 140527Z 09008KT 01/M05 A301 RMK A01 T00131050  RH  063%=      5-min Rain = 0
KOD1 140528Z 10008KT 01/M05 A301 RMK A01 T00121050  RH  063%=      5-min Rain = 0
KOD1 140529Z 10008KT 01/M05 A301 RMK A01 T00121050  RH  063%=      5-min Rain = 0
KOD1 140530Z 10007KT 01/M05 A301 RMK A01 T00121050  RH  064%=      5-min Rain = 0
KOD1 140531Z 10008KT 01/M05 A301 RMK A01 T00111049  RH  064%=      5-min Rain = 0
KOD1 140532Z 09007KT 01/M05 A301 RMK A01 T00111049  RH  064%=      5-min Rain = 0
KOD1 140533Z 09007KT 01/M05 A301 RMK A01 T00111049  RH  064%=      5-min Rain = 0
KOD1 140534Z 09007KT 01/M05 A301 RMK A01 T00111049  RH  064%=      5-min Rain = 0
KOD1 140535Z 09007KT 01/M05 A301 RMK A01 T00111049  RH  064%=      5-min Rain = 0
KOD1 140536Z 09007KT 01/M05 A301 RMK A01 T00101050  RH  064%=      5-min Rain = 0
KOD1 140537Z 09007KT 01/M05 A301 RMK A01 T00101050  RH  064%=      5-min Rain = 0
KOD1 140538Z 09007KT 01/M05 A301 RMK A01 T00091050  RH  065%=      5-min Rain = 0
KOD1 140539Z 09006KT 01/M05 A3011 RMK A01 T00091050  RH  065%=      5-min Rain = 0
KOD1 140540Z 09006KT 01/M05 A3011 RMK A01 T00091050  RH  065%=      5-min Rain = 0
KOD1 140541Z 09006KT 01/M05 A3011 RMK A01 T00091050  RH  065%=      5-min Rain = 0
KOD1 140542Z 09006KT 01/M05 A3011 RMK A01 T00081050  RH  065%=      5-min Rain = 0
KOD1 140543Z 09006KT 01/M05 A3011 RMK A01 T00081050  RH  065%=      5-min Rain = 0
KOD1 140544Z 09006KT 01/M05 A3011 RMK A01 T00081049  RH  065%=      5-min Rain = 0
KOD1 140545Z 09006KT 01/M05 A3011 RMK A01 T00081050  RH  065%=      5-min Rain = 0
KOD1 140546Z 09006KT 01/M05 A3011 RMK A01 T00081051  RH  065%=      5-min Rain = 0
KOD1 140547Z 09006KT 01/M05 A3011 RMK A01 T00081051  RH  065%=      5-min Rain = 0
KOD1 140548Z 09006KT 01/M05 A3011 RMK A01 T00071050  RH  065%=      5-min Rain = 0
KOD1 140549Z 09006KT 01/M05 A3011 RMK A01 T00071050  RH  066%=      5-min Rain = 0
KOD1 140550Z 09006KT 01/M05 A3011 RMK A01 T00061051  RH  066%=      5-min Rain = 0
KOD1 140551Z 09005KT 01/M05 A3011 RMK A01 T00061051  RH  066%=      5-min Rain = 0
KOD1 140552Z 09005KT 01/M05 A3011 RMK A01 T00051051  RH  066%=      5-min Rain = 0
KOD1 140553Z 09005KT 01/M05 A3011 RMK A01 T00051052  RH  066%=      5-min Rain = 0
KOD1 140554Z 09006KT 00/M05 A3011 RMK A01 T00041052  RH  066%=      5-min Rain = 0
KOD1 140555Z 09005KT 00/M05 A3011 RMK A01 T00041052  RH  066%=      5-min Rain = 0
KOD1 140556Z 09006KT 00/M05 A3011 RMK A01 T00041052  RH  066%=      5-min Rain = 0
KOD1 140557Z 09006KT 00/M05 A3011 RMK A01 T00041052  RH  066%=      5-min Rain = 0
KOD1 140558Z 09006KT 00/M05 A3011 RMK A01 T00041052  RH  066%=      5-min Rain = 0
KOD1 140559Z 08006KT 00/M05 A3011 RMK A01 T00041052  RH  066%=      5-min Rain = 0

Page generated in 0.31 seconds.